Wetterdaten: Dienstag, 23.05.2023
Datum Zeit Temp. Aussen Temp. o. S. Temp +5cm Feuchte Auss Luftdruck Regen Sonnenschein Regendauer Solar Windben Empfang
23.05.2023 00:00 17,0 C 15,6 C 12,2 C 85 % 1017,1 hPa 0,0 l/m 0 min 0 min 0 W/m 6,4 km/h (2 Bft) 100,00 %
23.05.2023 00:02 16,9 C 15,6 C 12,2 C 85 % 1017,1 hPa 0,0 l/m 0 min 0 min 0 W/m 6,4 km/h (2 Bft) 95,00 %
23.05.2023 00:04 16,9 C 15,6 C 12,2 C 86 % 1017,2 hPa 0,0 l/m 0 min 0 min 0 W/m 9,7 km/h (2 Bft) 100,00 %
23.05.2023 00:07 16,8 C 15,6 C 12,2 C 86 % 1017,2 hPa 0,0 l/m 0 min 0 min 0 W/m 9,7 km/h (2 Bft) 100,00 %
23.05.2023 00:08 16,8 C 15,6 C 12,2 C 86 % 1017,2 hPa 0,0 l/m 0 min 0 min 0 W/m 9,7 km/h (2 Bft) 100,00 %
23.05.2023 00:12 16,7 C 15,6 C 12,2 C 86 % 1017,3 hPa 0,0 l/m 0 min 0 min 0 W/m 6,4 km/h (2 Bft) 95,65 %
23.05.2023 00:14 16,7 C 15,6 C 12,2 C 86 % 1017,3 hPa 0,0 l/m 0 min 0 min 0 W/m 16,1 km/h (3 Bft) 100,00 %
23.05.2023 00:16 16,6 C 15,6 C 12,2 C 86 % 1017,3 hPa 0,0 l/m 0 min 0 min 0 W/m 16,1 km/h (3 Bft) 100,00 %
23.05.2023 00:18 16,6 C 15,6 C 12,2 C 86 % 1017,3 hPa 0,0 l/m 0 min 0 min 0 W/m 12,9 km/h (3 Bft) 97,87 %
23.05.2023 00:20 16,5 C 15,6 C 12,2 C 86 % 1017,3 hPa 0,0 l/m 0 min 0 min 0 W/m 9,7 km/h (2 Bft) 100,00 %
23.05.2023 00:22 16,5 C 15,6 C 12,2 C 86 % 1017,3 hPa 0,0 l/m 0 min 0 min 0 W/m 16,1 km/h (3 Bft) 100,00 %
23.05.2023 00:24 16,4 C 15,6 C 12,2 C 86 % 1017,4 hPa 0,0 l/m 0 min 0 min 0 W/m 22,5 km/h (4 Bft) 97,87 %
23.05.2023 00:26 16,4 C 15,6 C 12,2 C 86 % 1017,3 hPa 0,0 l/m 0 min 0 min 0 W/m 19,3 km/h (3 Bft) 97,92 %
23.05.2023 00:28 16,4 C 15,6 C 12,2 C 86 % 1017,4 hPa 0,0 l/m 0 min 0 min 0 W/m 16,1 km/h (3 Bft) 95,74 %
23.05.2023 00:30 16,4 C 15,6 C 12,2 C 86 % 1017,4 hPa 0,0 l/m 0 min 0 min 0 W/m 12,9 km/h (3 Bft) 95,74 %
23.05.2023 00:32 16,4 C 15,6 C 12,2 C 86 % 1017,4 hPa 0,0 l/m 0 min 0 min 0 W/m 16,1 km/h (3 Bft) 97,87 %
23.05.2023 00:34 16,4 C 15,6 C 12,2 C 86 % 1017,4 hPa 0,0 l/m 0 min 0 min 0 W/m 12,9 km/h (3 Bft) 94,74 %
23.05.2023 00:36 16,3 C 15,6 C 12,2 C 86 % 1017,5 hPa 0,0 l/m 0 min 0 min 0 W/m 12,9 km/h (3 Bft) 95,74 %
23.05.2023 00:38 16,3 C 15,6 C 12,2 C 86 % 1017,5 hPa 0,0 l/m 0 min 0 min 0 W/m 16,1 km/h (3 Bft) 97,87 %
23.05.2023 00:40 16,3 C 15,0 C 12,2 C 86 % 1017,5 hPa 0,0 l/m 0 min 0 min 0 W/m 16,1 km/h (3 Bft) 97,87 %
23.05.2023 00:42 16,3 C 15,0 C 12,2 C 86 % 1017,5 hPa 0,0 l/m 0 min 0 min 0 W/m 19,3 km/h (3 Bft) 97,87 %
23.05.2023 00:44 16,2 C 15,0 C 11,7 C 86 % 1017,5 hPa 0,0 l/m 0 min 0 min 0 W/m 12,9 km/h (3 Bft) 95,83 %
23.05.2023 00:46 16,2 C 15,0 C 11,7 C 86 % 1017,5 hPa 0,0 l/m 0 min 0 min 0 W/m 6,4 km/h (2 Bft) 95,74 %
23.05.2023 00:48 16,2 C 15,0 C 11,7 C 86 % 1017,6 hPa 0,0 l/m 0 min 0 min 0 W/m 16,1 km/h (3 Bft) 93,62 %
23.05.2023 00:50 16,2 C 15,0 C 11,7 C 86 % 1017,6 hPa 0,0 l/m 0 min 0 min 0 W/m 16,1 km/h (3 Bft) 95,74 %
23.05.2023 00:52 16,1 C 15,0 C 11,7 C 87 % 1017,6 hPa 0,0 l/m 0 min 0 min 0 W/m 12,9 km/h (3 Bft) 93,62 %
23.05.2023 00:54 16,1 C 15,0 C 11,7 C 87 % 1017,7 hPa 0,0 l/m 0 min 0 min 0 W/m 19,3 km/h (3 Bft) 95,65 %
23.05.2023 00:56 16,1 C 15,0 C 11,7 C 87 % 1017,7 hPa 0,0 l/m 0 min 0 min 0 W/m 22,5 km/h (4 Bft) 95,74 %
23.05.2023 00:58 16,1 C 15,0 C 11,7 C 87 % 1017,7 hPa 0,0 l/m 0 min 0 min 0 W/m 9,7 km/h (2 Bft) 97,87 %
23.05.2023 01:00 16,1 C 15,0 C 11,7 C 87 % 1017,7 hPa 0,0 l/m 0 min 0 min 0 W/m 16,1 km/h (3 Bft) 97,87 %
23.05.2023 01:02 16,1 C 15,0 C 11,7 C 87 % 1017,7 hPa 0,0 l/m 0 min 0 min 0 W/m 22,5 km/h (4 Bft) 97,87 %
23.05.2023 01:04 16,0 C 15,0 C 11,7 C 87 % 1017,8 hPa 0,0 l/m 0 min 0 min 0 W/m 25,7 km/h (4 Bft) 95,74 %
23.05.2023 01:06 16,0 C 15,0 C 11,7 C 87 % 1017,8 hPa 0,0 l/m 0 min 0 min 0 W/m 16,1 km/h (3 Bft) 98,31 %
23.05.2023 01:08 16,0 C 15,0 C 11,7 C 87 % 1017,8 hPa 0,0 l/m 0 min 0 min 0 W/m 16,1 km/h (3 Bft) 94,29 %
23.05.2023 01:10 16,0 C 15,0 C 11,7 C 87 % 1017,8 hPa 0,0 l/m 0 min 0 min 0 W/m 19,3 km/h (3 Bft) 95,74 %
23.05.2023 01:12 16,0 C 15,0 C 11,7 C 87 % 1017,8 hPa 0,0 l/m 0 min 0 min 0 W/m 16,1 km/h (3 Bft) 95,74 %
23.05.2023 01:14 16,0 C 15,0 C 11,7 C 88 % 1017,9 hPa 0,0 l/m 0 min 0 min 0 W/m 9,7 km/h (2 Bft) 95,74 %
23.05.2023 01:16 16,0 C 15,0 C 11,7 C 88 % 1017,8 hPa 0,0 l/m 0 min 0 min 0 W/m 22,5 km/h (4 Bft) 97,87 %
23.05.2023 01:18 16,0 C 15,6 C 11,7 C 88 % 1017,8 hPa 0,0 l/m 0 min 0 min 0 W/m 19,3 km/h (3 Bft) 97,87 %
23.05.2023 01:20 16,0 C 15,6 C 12,2 C 88 % 1017,8 hPa 0,0 l/m 0 min 0 min 0 W/m 9,7 km/h (2 Bft) 97,87 %
23.05.2023 01:22 16,0 C 15,6 C 12,2 C 88 % 1017,7 hPa 0,0 l/m 0 min 0 min 0 W/m 12,9 km/h (3 Bft) 97,83 %
23.05.2023 01:24 16,0 C 15,6 C 12,2 C 88 % 1017,7 hPa 0,0 l/m 0 min 0 min 0 W/m 12,9 km/h (3 Bft) 95,74 %
23.05.2023 01:26 16,0 C 15,0 C 11,7 C 88 % 1017,7 hPa 0,0 l/m 0 min 0 min 0 W/m 12,9 km/h (3 Bft) 97,87 %
23.05.2023 01:28 16,0 C 15,0 C 11,7 C 88 % 1017,7 hPa 0,0 l/m 0 min 0 min 0 W/m 16,1 km/h (3 Bft) 97,87 %
23.05.2023 01:30 16,0 C 15,0 C 11,7 C 88 % 1017,6 hPa 0,0 l/m 0 min 0 min 0 W/m 6,4 km/h (2 Bft) 100,00 %
23.05.2023 01:32 16,0 C 15,0 C 11,7 C 87 % 1017,6 hPa 0,0 l/m 0 min 0 min 0 W/m 12,9 km/h (3 Bft) 100,00 %
23.05.2023 01:34 16,0 C 15,0 C 11,7 C 88 % 1017,7 hPa 0,0 l/m 0 min 0 min 0 W/m 9,7 km/h (2 Bft) 97,87 %
23.05.2023 01:36 16,0 C 15,0 C 11,7 C 88 % 1017,6 hPa 0,0 l/m 0 min 0 min 0 W/m 3,2 km/h (1 Bft) 97,83 %
23.05.2023 01:38 15,9 C 15,0 C 11,7 C 87 % 1017,7 hPa 0,0 l/m 0 min 0 min 0 W/m 6,4 km/h (2 Bft) 100,00 %
23.05.2023 01:40 15,9 C 15,0 C 11,7 C 88 % 1017,7 hPa 0,0 l/m 0 min 0 min 0 W/m 3,2 km/h (1 Bft) 100,00 %
23.05.2023 01:42 15,9 C 15,0 C 11,7 C 88 % 1017,7 hPa 0,0 l/m 0 min 0 min 0 W/m 12,9 km/h (3 Bft) 100,00 %
23.05.2023 01:44 15,9 C 14,4 C 11,7 C 88 % 1017,7 hPa 0,0 l/m 0 min 0 min 0 W/m 9,7 km/h (2 Bft) 100,00 %
23.05.2023 01:46 15,9 C 14,4 C 11,7 C 88 % 1017,7 hPa 0,0 l/m 0 min 0 min 0 W/m 12,9 km/h (3 Bft) 100,00 %
23.05.2023 01:48 15,9 C 14,4 C 11,7 C 88 % 1017,6 hPa 0,0 l/m 0 min 0 min 0 W/m 9,7 km/h (2 Bft) 100,00 %
23.05.2023 01:50 15,8 C 14,4 C 11,1 C 88 % 1017,6 hPa 0,0 l/m 0 min 0 min 0 W/m 9,7 km/h (2 Bft) 100,00 %
23.05.2023 01:52 15,8 C 14,4 C 11,1 C 88 % 1017,6 hPa 0,0 l/m 0 min 0 min 0 W/m 9,7 km/h (2 Bft) 100,00 %
23.05.2023 01:54 15,8 C 14,4 C 11,1 C 88 % 1017,7 hPa 0,0 l/m 0 min 0 min 0 W/m 9,7 km/h (2 Bft) 100,00 %
23.05.2023 01:56 15,7 C 14,4 C 11,1 C 88 % 1017,6 hPa 0,0 l/m 0 min 0 min 0 W/m 22,5 km/h (4 Bft) 98,18 %
23.05.2023 01:58 15,7 C 15,0 C 11,7 C 88 % 1017,6 hPa 0,0 l/m 0 min 0 min 0 W/m 16,1 km/h (3 Bft) 97,87 %
23.05.2023 02:00 15,7 C 15,0 C 11,7 C 88 % 1017,5 hPa 0,0 l/m 0 min 0 min 0 W/m 16,1 km/h (3 Bft) 98,00 %
23.05.2023 02:02 15,7 C 15,0 C 11,7 C 89 % 1017,6 hPa 0,0 l/m 0 min 0 min 0 W/m 9,7 km/h (2 Bft) 95,74 %
23.05.2023 02:04 15,7 C 15,0 C 11,7 C 89 % 1017,5 hPa 0,0 l/m 0 min 0 min 0 W/m 6,4 km/h (2 Bft) 97,92 %
23.05.2023 02:06 15,7 C 15,0 C 11,7 C 89 % 1017,5 hPa 0,0 l/m 0 min 0 min 0 W/m 12,9 km/h (3 Bft) 97,87 %
23.05.2023 02:08 15,6 C 14,4 C 11,1 C 89 % 1017,6 hPa 0,0 l/m 0 min 0 min 0 W/m 12,9 km/h (3 Bft) 97,14 %
23.05.2023 02:10 15,6 C 14,4 C 11,1 C 89 % 1017,6 hPa 0,0 l/m 0 min 0 min 0 W/m 9,7 km/h (2 Bft) 97,87 %
23.05.2023 02:14 15,6 C 14,4 C 11,1 C 89 % 1017,6 hPa 0,0 l/m 0 min 0 min 0 W/m 12,9 km/h (3 Bft) 100,00 %
23.05.2023 02:16 15,5 C 14,4 C 11,1 C 89 % 1017,7 hPa 0,0 l/m 0 min 0 min 0 W/m 19,3 km/h (3 Bft) 93,62 %
23.05.2023 02:18 15,5 C 15,0 C 11,1 C 89 % 1017,7 hPa 0,0 l/m 0 min 0 min 0 W/m 16,1 km/h (3 Bft) 95,65 %
23.05.2023 02:20 15,5 C 15,0 C 11,1 C 89 % 1017,7 hPa 0,0 l/m 0 min 0 min 0 W/m 19,3 km/h (3 Bft) 95,74 %
23.05.2023 02:22 15,4 C 15,0 C 11,1 C 88 % 1017,7 hPa 0,0 l/m 0 min 0 min 0 W/m 25,7 km/h (4 Bft) 93,62 %
23.05.2023 02:24 15,4 C 15,0 C 11,1 C 88 % 1017,6 hPa 0,0 l/m 0 min 0 min 0 W/m 22,5 km/h (4 Bft) 95,83 %
23.05.2023 02:26 15,4 C 14,4 C 11,1 C 88 % 1017,7 hPa 0,0 l/m 0 min 0 min 0 W/m 35,4 km/h (5 Bft) 93,62 %
23.05.2023 02:28 15,4 C 15,0 C 11,1 C 88 % 1017,7 hPa 0,0 l/m 0 min 0 min 0 W/m 9,7 km/h (2 Bft) 95,74 %
23.05.2023 02:30 15,4 C 15,0 C 11,1 C 88 % 1017,8 hPa 0,0 l/m 0 min 0 min 0 W/m 19,3 km/h (3 Bft) 93,62 %
23.05.2023 02:32 15,4 C 15,0 C 11,1 C 88 % 1017,8 hPa 0,0 l/m 0 min 0 min 0 W/m 19,3 km/h (3 Bft) 95,65 %
23.05.2023 02:34 15,4 C 14,4 C 11,1 C 88 % 1017,8 hPa 0,0 l/m 0 min 0 min 0 W/m 29,0 km/h (5 Bft) 95,74 %
23.05.2023 02:36 15,4 C 14,4 C 11,1 C 88 % 1017,8 hPa 0,0 l/m 0 min 0 min 0 W/m 29,0 km/h (5 Bft) 95,74 %
23.05.2023 02:38 15,4 C 14,4 C 11,1 C 88 % 1017,8 hPa 0,0 l/m 0 min 0 min 0 W/m 12,9 km/h (3 Bft) 95,74 %
23.05.2023 02:40 15,3 C 14,4 C 11,1 C 88 % 1017,8 hPa 0,0 l/m 0 min 0 min 0 W/m 25,7 km/h (4 Bft) 95,74 %
23.05.2023 02:42 15,3 C 14,4 C 11,1 C 88 % 1017,8 hPa 0,0 l/m 0 min 0 min 0 W/m 19,3 km/h (3 Bft) 95,74 %
23.05.2023 02:44 15,3 C 14,4 C 11,1 C 88 % 1017,9 hPa 0,0 l/m 0 min 0 min 0 W/m 16,1 km/h (3 Bft) 93,62 %
23.05.2023 02:46 15,3 C 14,4 C 11,1 C 88 % 1017,8 hPa 0,0 l/m 0 min 0 min 0 W/m 16,1 km/h (3 Bft) 95,65 %
23.05.2023 02:48 15,3 C 14,4 C 11,1 C 88 % 1017,9 hPa 0,0 l/m 0 min 0 min 0 W/m 16,1 km/h (3 Bft) 97,87 %
23.05.2023 02:50 15,3 C 14,4 C 11,1 C 88 % 1017,9 hPa 0,0 l/m 0 min 0 min 0 W/m 12,9 km/h (3 Bft) 97,87 %
23.05.2023 02:52 15,3 C 14,4 C 11,1 C 88 % 1017,9 hPa 0,0 l/m 0 min 0 min 0 W/m 19,3 km/h (3 Bft) 100,00 %
23.05.2023 02:54 15,3 C 14,4 C 11,1 C 88 % 1017,9 hPa 0,0 l/m 0 min 0 min 0 W/m 16,1 km/h (3 Bft) 97,87 %
23.05.2023 02:56 15,3 C 14,4 C 11,1 C 88 % 1017,9 hPa 0,0 l/m 0 min 0 min 0 W/m 19,3 km/h (3 Bft) 100,00 %
23.05.2023 02:58 15,3 C 14,4 C 11,1 C 88 % 1017,9 hPa 0,0 l/m 0 min 0 min 0 W/m 19,3 km/h (3 Bft) 97,87 %
23.05.2023 03:00 15,3 C 14,4 C 11,1 C 88 % 1018,0 hPa 0,0 l/m 0 min 0 min 0 W/m 9,7 km/h (2 Bft) 100,00 %
23.05.2023 03:02 15,3 C 14,4 C 11,1 C 88 % 1017,9 hPa 0,0 l/m 0 min 0 min 0 W/m 12,9 km/h (3 Bft) 97,87 %
23.05.2023 03:04 15,3 C 14,4 C 11,1 C 88 % 1017,9 hPa 0,0 l/m 0 min 0 min 0 W/m 12,9 km/h (3 Bft) 97,62 %
23.05.2023 03:06 15,3 C 14,4 C 11,1 C 88 % 1017,9 hPa 0,0 l/m 0 min 0 min 0 W/m 22,5 km/h (4 Bft) 96,61 %
23.05.2023 03:08 15,2 C 14,4 C 11,1 C 88 % 1017,9 hPa 0,0 l/m 0 min 0 min 0 W/m 19,3 km/h (3 Bft) 100,00 %
23.05.2023 03:10 15,2 C 14,4 C 11,1 C 88 % 1017,9 hPa 0,0 l/m 0 min 0 min 0 W/m 16,1 km/h (3 Bft) 100,00 %
23.05.2023 03:12 15,2 C 14,4 C 11,1 C 88 % 1017,9 hPa 0,0 l/m 0 min 0 min 0 W/m 29,0 km/h (5 Bft) 95,74 %
23.05.2023 03:14 15,2 C 14,4 C 11,1 C 87 % 1017,9 hPa 0,0 l/m 0 min 0 min 0 W/m 22,5 km/h (4 Bft) 100,00 %
23.05.2023 03:16 15,2 C 14,4 C 11,1 C 87 % 1017,9 hPa 0,0 l/m 0 min 0 min 0 W/m 22,5 km/h (4 Bft) 100,00 %
23.05.2023 03:18 15,2 C 14,4 C 11,1 C 87 % 1017,9 hPa 0,0 l/m 0 min 0 min 0 W/m 9,7 km/h (2 Bft) 97,87 %
23.05.2023 03:20 15,2 C 14,4 C 11,1 C 87 % 1017,9 hPa 0,0 l/m 0 min 0 min 0 W/m 16,1 km/h (3 Bft) 95,74 %
23.05.2023 03:22 15,2 C 14,4 C 11,1 C 88 % 1017,9 hPa 0,0 l/m 0 min 0 min 0 W/m 16,1 km/h (3 Bft) 100,00 %
23.05.2023 03:24 15,2 C 14,4 C 11,1 C 88 % 1017,9 hPa 0,0 l/m 0 min 0 min 0 W/m 22,5 km/h (4 Bft) 100,00 %
23.05.2023 03:26 15,2 C 14,4 C 11,1 C 88 % 1018,0 hPa 0,0 l/m 0 min 0 min 0 W/m 19,3 km/h (3 Bft) 97,87 %
23.05.2023 03:28 15,2 C 14,4 C 11,1 C 88 % 1018,0 hPa 0,0 l/m 0 min 0 min 0 W/m 12,9 km/h (3 Bft) 97,87 %
23.05.2023 03:30 15,2 C 14,4 C 11,1 C 88 % 1018,0 hPa 0,0 l/m 0 min 0 min 0 W/m 9,7 km/h (2 Bft) 95,74 %
23.05.2023 03:32 15,2 C 14,4 C 11,1 C 88 % 1018,0 hPa 0,0 l/m 0 min 0 min 0 W/m 16,1 km/h (3 Bft) 97,87 %
23.05.2023 03:34 15,2 C 14,4 C 11,1 C 88 % 1018,0 hPa 0,0 l/m 0 min 0 min 0 W/m 16,1 km/h (3 Bft) 95,74 %
23.05.2023 03:36 15,2 C 14,4 C 11,1 C 88 % 1018,0 hPa 0,0 l/m 0 min 0 min 0 W/m 19,3 km/h (3 Bft) 97,87 %
23.05.2023 03:38 15,2 C 14,4 C 11,1 C 88 % 1018,0 hPa 0,0 l/m 0 min 0 min 0 W/m 19,3 km/h (3 Bft) 95,74 %
23.05.2023 03:40 15,2 C 14,4 C 11,1 C 88 % 1018,0 hPa 0,0 l/m 0 min 0 min 0 W/m 16,1 km/h (3 Bft) 97,87 %
23.05.2023 03:42 15,2 C 14,4 C 11,1 C 88 % 1018,1 hPa 0,0 l/m 0 min 0 min 0 W/m 16,1 km/h (3 Bft) 97,87 %
23.05.2023 03:44 15,2 C 14,4 C 11,1 C 88 % 1018,1 hPa 0,0 l/m 0 min 0 min 0 W/m 12,9 km/h (3 Bft) 97,87 %
23.05.2023 03:46 15,2 C 14,4 C 11,1 C 88 % 1018,1 hPa 0,0 l/m 0 min 0 min 0 W/m 9,7 km/h (2 Bft) 97,87 %
23.05.2023 03:48 15,2 C 14,4 C 11,1 C 87 % 1018,1 hPa 0,0 l/m 0 min 0 min 0 W/m 19,3 km/h (3 Bft) 97,92 %
23.05.2023 03:50 15,2 C 14,4 C 11,1 C 88 % 1018,1 hPa 0,0 l/m 0 min 0 min 0 W/m 16,1 km/h (3 Bft) 97,96 %
23.05.2023 03:52 15,2 C 14,4 C 11,1 C 88 % 1018,1 hPa 0,0 l/m 0 min 0 min 0 W/m 16,1 km/h (3 Bft) 97,87 %
23.05.2023 03:54 15,2 C 14,4 C 11,1 C 88 % 1018,1 hPa 0,0 l/m 0 min 0 min 0 W/m 12,9 km/h (3 Bft) 95,74 %
23.05.2023 03:56 15,2 C 14,4 C 11,1 C 88 % 1018,1 hPa 0,0 l/m 0 min 0 min 0 W/m 9,7 km/h (2 Bft) 93,48 %
23.05.2023 03:58 15,2 C 14,4 C 11,1 C 88 % 1018,1 hPa 0,0 l/m 0 min 0 min 0 W/m 9,7 km/h (2 Bft) 97,30 %
23.05.2023 04:00 15,2 C 14,4 C 11,1 C 88 % 1018,1 hPa 0,0 l/m 0 min 0 min 0 W/m 12,9 km/h (3 Bft) 97,83 %
23.05.2023 04:02 15,2 C 14,4 C 11,1 C 88 % 1018,1 hPa 0,0 l/m 0 min 0 min 0 W/m 19,3 km/h (3 Bft) 93,62 %
23.05.2023 04:04 15,2 C 14,4 C 11,1 C 88 % 1018,1 hPa 0,0 l/m 0 min 0 min 0 W/m 12,9 km/h (3 Bft) 95,92 %
23.05.2023 04:06 15,2 C 14,4 C 11,1 C 88 % 1018,2 hPa 0,0 l/m 0 min 0 min 0 W/m 9,7 km/h (2 Bft) 94,92 %
23.05.2023 04:08 15,3 C 14,4 C 11,1 C 88 % 1018,2 hPa 0,0 l/m 0 min 0 min 0 W/m 12,9 km/h (3 Bft) 97,14 %
23.05.2023 04:10 15,3 C 14,4 C 11,1 C 88 % 1018,2 hPa 0,0 l/m 0 min 0 min 0 W/m 12,9 km/h (3 Bft) 95,74 %
23.05.2023 04:12 15,3 C 14,4 C 11,1 C 88 % 1018,2 hPa 0,0 l/m 0 min 0 min 0 W/m 9,7 km/h (2 Bft) 97,83 %
23.05.2023 04:14 15,2 C 14,4 C 11,1 C 88 % 1018,2 hPa 0,0 l/m 0 min 0 min 0 W/m 6,4 km/h (2 Bft) 95,74 %
23.05.2023 04:16 15,2 C 14,4 C 11,1 C 88 % 1018,2 hPa 0,0 l/m 0 min 0 min 0 W/m 9,7 km/h (2 Bft) 97,87 %
23.05.2023 04:18 15,2 C 14,4 C 11,1 C 88 % 1018,2 hPa 0,0 l/m 0 min 0 min 0 W/m 12,9 km/h (3 Bft) 97,87 %
23.05.2023 04:20 15,2 C 14,4 C 11,1 C 88 % 1018,2 hPa 0,0 l/m 0 min 0 min 0 W/m 9,7 km/h (2 Bft) 95,74 %
23.05.2023 04:22 15,2 C 14,4 C 11,1 C 88 % 1018,1 hPa 0,0 l/m 0 min 0 min 0 W/m 9,7 km/h (2 Bft) 95,74 %
23.05.2023 04:24 15,2 C 14,4 C 11,1 C 88 % 1018,2 hPa 0,0 l/m 0 min 0 min 0 W/m 16,1 km/h (3 Bft) 95,74 %
23.05.2023 04:26 15,2 C 14,4 C 11,1 C 88 % 1018,2 hPa 0,0 l/m 0 min 0 min 0 W/m 9,7 km/h (2 Bft) 95,65 %
23.05.2023 04:28 15,2 C 14,4 C 11,1 C 88 % 1018,2 hPa 0,0 l/m 0 min 0 min 0 W/m 9,7 km/h (2 Bft) 97,87 %
23.05.2023 04:30 15,2 C 14,4 C 11,1 C 88 % 1018,1 hPa 0,0 l/m 0 min 0 min 0 W/m 9,7 km/h (2 Bft) 97,87 %
23.05.2023 04:32 15,1 C 14,4 C 11,1 C 89 % 1018,2 hPa 0,0 l/m 0 min 0 min 0 W/m 9,7 km/h (2 Bft) 94,12 %
23.05.2023 04:34 15,1 C 14,4 C 11,1 C 89 % 1018,2 hPa 0,0 l/m 0 min 0 min 0 W/m 9,7 km/h (2 Bft) 95,74 %
23.05.2023 04:36 15,1 C 14,4 C 11,1 C 89 % 1018,3 hPa 0,0 l/m 0 min 0 min 0 W/m 19,3 km/h (3 Bft) 97,87 %
23.05.2023 04:38 15,1 C 14,4 C 11,1 C 89 % 1018,2 hPa 0,0 l/m 0 min 0 min 0 W/m 16,1 km/h (3 Bft) 97,87 %
23.05.2023 04:40 15,1 C 14,4 C 11,1 C 89 % 1018,3 hPa 0,0 l/m 0 min 0 min 0 W/m 22,5 km/h (4 Bft) 100,00 %
23.05.2023 04:42 15,1 C 14,4 C 11,1 C 89 % 1018,4 hPa 0,0 l/m 0 min 0 min 0 W/m 19,3 km/h (3 Bft) 97,87 %
23.05.2023 04:44 15,1 C 14,4 C 11,1 C 89 % 1018,4 hPa 0,0 l/m 0 min 0 min 0 W/m 25,7 km/h (4 Bft) 100,00 %
23.05.2023 04:46 15,0 C 14,4 C 11,1 C 89 % 1018,4 hPa 0,0 l/m 0 min 0 min 0 W/m 16,1 km/h (3 Bft) 100,00 %
23.05.2023 04:48 15,0 C 14,4 C 11,1 C 89 % 1018,3 hPa 0,0 l/m 0 min 0 min 0 W/m 12,9 km/h (3 Bft) 100,00 %
23.05.2023 04:50 15,0 C 14,4 C 11,1 C 89 % 1018,4 hPa 0,0 l/m 0 min 0 min 0 W/m 16,1 km/h (3 Bft) 100,00 %
23.05.2023 04:52 15,0 C 14,4 C 11,1 C 89 % 1018,4 hPa 0,0 l/m 0 min 0 min 0 W/m 16,1 km/h (3 Bft) 100,00 %
23.05.2023 04:54 15,0 C 14,4 C 11,1 C 89 % 1018,4 hPa 0,0 l/m 0 min 0 min 0 W/m 9,7 km/h (2 Bft) 100,00 %
23.05.2023 04:56 14,9 C 14,4 C 11,1 C 89 % 1018,5 hPa 0,0 l/m 0 min 0 min 0 W/m 16,1 km/h (3 Bft) 97,87 %
23.05.2023 04:58 14,9 C 14,4 C 11,1 C 89 % 1018,5 hPa 0,0 l/m 0 min 0 min 0 W/m 6,4 km/h (2 Bft) 97,87 %
23.05.2023 05:00 14,9 C 13,9 C 10,6 C 89 % 1018,5 hPa 0,0 l/m 0 min 0 min 0 W/m 19,3 km/h (3 Bft) 97,87 %
23.05.2023 05:02 14,9 C 13,9 C 10,6 C 89 % 1018,5 hPa 0,0 l/m 0 min 0 min 0 W/m 22,5 km/h (4 Bft) 95,74 %
23.05.2023 05:04 14,9 C 14,4 C 10,6 C 89 % 1018,5 hPa 0,0 l/m 0 min 0 min 0 W/m 12,9 km/h (3 Bft) 95,92 %
23.05.2023 05:06 14,9 C 14,4 C 10,6 C 89 % 1018,6 hPa 0,0 l/m 0 min 0 min 0 W/m 25,7 km/h (4 Bft) 97,83 %
23.05.2023 05:08 14,9 C 13,9 C 10,6 C 89 % 1018,5 hPa 0,0 l/m 0 min 0 min 0 W/m 45,1 km/h (6 Bft) 97,87 %
23.05.2023 05:10 14,8 C 13,9 C 10,6 C 89 % 1018,4 hPa 0,0 l/m 0 min 0 min 0 W/m 19,3 km/h (3 Bft) 97,87 %
23.05.2023 05:12 14,8 C 13,9 C 10,6 C 89 % 1018,4 hPa 0,0 l/m 0 min 0 min 0 W/m 25,7 km/h (4 Bft) 95,74 %
23.05.2023 05:14 14,8 C 13,9 C 10,6 C 89 % 1018,4 hPa 0,0 l/m 0 min 0 min 0 W/m 22,5 km/h (4 Bft) 97,87 %
23.05.2023 05:16 14,8 C 13,9 C 10,6 C 89 % 1018,4 hPa 0,0 l/m 0 min 0 min 0 W/m 25,7 km/h (4 Bft) 95,74 %
23.05.2023 05:18 14,8 C 13,9 C 10,6 C 89 % 1018,5 hPa 0,0 l/m 0 min 0 min 0 W/m 19,3 km/h (3 Bft) 97,87 %
23.05.2023 05:20 14,8 C 13,9 C 10,6 C 88 % 1018,5 hPa 0,0 l/m 0 min 0 min 0 W/m 16,1 km/h (3 Bft) 95,74 %
23.05.2023 05:22 14,8 C 13,9 C 10,6 C 88 % 1018,6 hPa 0,0 l/m 0 min 0 min 0 W/m 12,9 km/h (3 Bft) 95,65 %
23.05.2023 05:24 14,8 C 14,4 C 11,1 C 88 % 1018,5 hPa 0,0 l/m 0 min 0 min 0 W/m 19,3 km/h (3 Bft) 97,87 %
23.05.2023 05:26 14,8 C 13,9 C 10,6 C 88 % 1018,5 hPa 0,0 l/m 0 min 0 min 0 W/m 25,7 km/h (4 Bft) 93,62 %
23.05.2023 05:28 14,8 C 14,4 C 10,6 C 88 % 1018,5 hPa 0,0 l/m 0 min 0 min 0 W/m 16,1 km/h (3 Bft) 97,87 %
23.05.2023 05:30 14,8 C 13,9 C 10,6 C 88 % 1018,5 hPa 0,0 l/m 0 min 0 min 0 W/m 16,1 km/h (3 Bft) 97,87 %
23.05.2023 05:32 14,8 C 13,9 C 10,6 C 89 % 1018,5 hPa 0,0 l/m 0 min 0 min 0 W/m 16,1 km/h (3 Bft) 95,74 %
23.05.2023 05:34 14,8 C 13,9 C 10,6 C 89 % 1018,6 hPa 0,0 l/m 0 min 0 min 0 W/m 9,7 km/h (2 Bft) 95,74 %
23.05.2023 05:36 14,8 C 13,9 C 10,6 C 89 % 1018,6 hPa 0,0 l/m 0 min 0 min 0 W/m 9,7 km/h (2 Bft) 97,83 %
23.05.2023 05:38 14,8 C 13,9 C 10,6 C 89 % 1018,6 hPa 0,0 l/m 0 min 0 min 0 W/m 12,9 km/h (3 Bft) 94,44 %
23.05.2023 05:40 14,8 C 13,9 C 10,6 C 89 % 1018,7 hPa 0,0 l/m 0 min 0 min 0 W/m 16,1 km/h (3 Bft) 97,83 %
23.05.2023 05:42 14,8 C 13,9 C 10,6 C 89 % 1018,6 hPa 0,0 l/m 0 min 0 min 0 W/m 25,7 km/h (4 Bft) 97,87 %
23.05.2023 05:44 14,8 C 13,9 C 10,6 C 89 % 1018,6 hPa 0,0 l/m 0 min 0 min 0 W/m 12,9 km/h (3 Bft) 96,43 %
23.05.2023 05:46 14,7 C 13,9 C 10,6 C 89 % 1018,6 hPa 0,0 l/m 0 min 0 min 0 W/m 22,5 km/h (4 Bft) 100,00 %
23.05.2023 05:48 14,7 C 13,9 C 10,6 C 89 % 1018,6 hPa 0,0 l/m 0 min 0 min 0 W/m 22,5 km/h (4 Bft) 95,83 %
23.05.2023 05:50 14,7 C 13,9 C 10,6 C 89 % 1018,6 hPa 0,0 l/m 0 min 0 min 0 W/m 19,3 km/h (3 Bft) 100,00 %
23.05.2023 05:52 14,7 C 13,9 C 10,6 C 90 % 1018,7 hPa 0,0 l/m 0 min 0 min 0 W/m 19,3 km/h (3 Bft) 100,00 %
23.05.2023 05:54 14,7 C 13,9 C 10,6 C 90 % 1018,7 hPa 0,0 l/m 0 min 0 min 0 W/m 16,1 km/h (3 Bft) 97,87 %
23.05.2023 05:56 14,7 C 13,9 C 10,6 C 90 % 1018,7 hPa 0,0 l/m 0 min 0 min 0 W/m 16,1 km/h (3 Bft) 93,62 %
23.05.2023 05:58 14,7 C 13,9 C 10,6 C 90 % 1018,7 hPa 0,0 l/m 0 min 0 min 2 W/m 19,3 km/h (3 Bft) 95,74 %
23.05.2023 06:00 14,6 C 13,9 C 10,6 C 90 % 1018,7 hPa 0,0 l/m 0 min 0 min 3 W/m 12,9 km/h (3 Bft) 97,87 %
23.05.2023 06:02 14,6 C 13,9 C 10,6 C 90 % 1018,7 hPa 0,0 l/m 0 min 0 min 5 W/m 16,1 km/h (3 Bft) 97,87 %
23.05.2023 06:04 14,6 C 13,9 C 10,6 C 90 % 1018,8 hPa 0,0 l/m 0 min 0 min 7 W/m 16,1 km/h (3 Bft) 97,87 %
23.05.2023 06:08 14,6 C 13,9 C 10,6 C 90 % 1018,8 hPa 0,0 l/m 0 min 0 min 7 W/m 16,1 km/h (3 Bft) 95,51 %
23.05.2023 06:10 14,6 C 13,9 C 10,6 C 90 % 1018,9 hPa 0,0 l/m 0 min 0 min 7 W/m 25,7 km/h (4 Bft) 97,87 %
23.05.2023 06:12 14,6 C 13,9 C 10,6 C 90 % 1018,8 hPa 0,0 l/m 0 min 0 min 7 W/m 12,9 km/h (3 Bft) 97,87 %
23.05.2023 06:14 14,6 C 13,9 C 10,6 C 90 % 1018,9 hPa 0,0 l/m 0 min 0 min 8 W/m 12,9 km/h (3 Bft) 95,65 %
23.05.2023 06:16 14,5 C 13,9 C 10,6 C 90 % 1018,9 hPa 0,0 l/m 0 min 0 min 9 W/m 9,7 km/h (2 Bft) 95,74 %
23.05.2023 06:18 14,5 C 13,9 C 10,6 C 90 % 1018,9 hPa 0,0 l/m 0 min 0 min 12 W/m 19,3 km/h (3 Bft) 95,74 %
23.05.2023 06:20 14,4 C 13,9 C 10,6 C 90 % 1018,9 hPa 0,0 l/m 0 min 0 min 15 W/m 22,5 km/h (4 Bft) 95,74 %
23.05.2023 06:22 14,4 C 13,9 C 10,6 C 90 % 1018,9 hPa 0,0 l/m 0 min 0 min 16 W/m 19,3 km/h (3 Bft) 95,74 %
23.05.2023 06:24 14,4 C 13,9 C 10,6 C 90 % 1018,9 hPa 0,0 l/m 0 min 0 min 16 W/m 19,3 km/h (3 Bft) 93,62 %
23.05.2023 06:26 14,4 C 13,9 C 10,6 C 90 % 1018,9 hPa 0,0 l/m 0 min 0 min 18 W/m 16,1 km/h (3 Bft) 95,74 %
23.05.2023 06:28 14,4 C 13,9 C 10,6 C 90 % 1018,9 hPa 0,0 l/m 0 min 0 min 19 W/m 9,7 km/h (2 Bft) 97,83 %
23.05.2023 06:30 14,4 C 13,9 C 10,6 C 90 % 1019,0 hPa 0,0 l/m 0 min 0 min 17 W/m 22,5 km/h (4 Bft) 97,87 %
23.05.2023 06:32 14,4 C 13,9 C 10,6 C 90 % 1018,9 hPa 0,0 l/m 0 min 0 min 17 W/m 12,9 km/h (3 Bft) 97,87 %
23.05.2023 06:34 14,4 C 13,9 C 10,6 C 90 % 1019,0 hPa 0,0 l/m 0 min 0 min 18 W/m 22,5 km/h (4 Bft) 95,74 %
23.05.2023 06:36 14,3 C 13,9 C 10,6 C 90 % 1019,0 hPa 0,0 l/m 0 min 0 min 16 W/m 16,1 km/h (3 Bft) 97,87 %
23.05.2023 06:38 14,4 C 13,9 C 10,6 C 90 % 1019,0 hPa 0,0 l/m 0 min 0 min 18 W/m 12,9 km/h (3 Bft) 97,87 %
23.05.2023 06:40 14,4 C 13,9 C 10,6 C 90 % 1019,0 hPa 0,0 l/m 0 min 0 min 16 W/m 19,3 km/h (3 Bft) 97,87 %
23.05.2023 06:42 14,3 C 13,9 C 10,6 C 90 % 1019,0 hPa 0,0 l/m 0 min 0 min 15 W/m 19,3 km/h (3 Bft) 97,83 %
23.05.2023 06:44 14,4 C 13,9 C 10,6 C 90 % 1019,1 hPa 0,0 l/m 0 min 0 min 15 W/m 16,1 km/h (3 Bft) 97,87 %
23.05.2023 06:46 14,4 C 13,9 C 10,6 C 90 % 1019,1 hPa 0,0 l/m 0 min 0 min 15 W/m 16,1 km/h (3 Bft) 97,87 %
23.05.2023 06:48 14,3 C 13,9 C 10,6 C 90 % 1019,1 hPa 0,0 l/m 0 min 0 min 15 W/m 19,3 km/h (3 Bft) 97,87 %
23.05.2023 06:50 14,3 C 13,9 C 10,6 C 90 % 1019,1 hPa 0,0 l/m 0 min 0 min 15 W/m 12,9 km/h (3 Bft) 93,62 %
23.05.2023 06:52 14,3 C 13,9 C 10,6 C 91 % 1019,0 hPa 0,0 l/m 0 min 0 min 16 W/m 9,7 km/h (2 Bft) 95,74 %
23.05.2023 06:54 14,3 C 13,9 C 10,6 C 91 % 1019,1 hPa 0,0 l/m 0 min 0 min 16 W/m 9,7 km/h (2 Bft) 97,83 %
23.05.2023 06:56 14,3 C 13,9 C 10,6 C 90 % 1019,1 hPa 0,0 l/m 0 min 0 min 18 W/m 16,1 km/h (3 Bft) 95,74 %
23.05.2023 06:58 14,4 C 13,9 C 10,6 C 90 % 1019,1 hPa 0,0 l/m 0 min 0 min 20 W/m 22,5 km/h (4 Bft) 97,87 %
23.05.2023 07:00 14,3 C 13,9 C 10,6 C 90 % 1019,1 hPa 0,0 l/m 0 min 0 min 21 W/m 16,1 km/h (3 Bft) 95,74 %
23.05.2023 07:02 14,3 C 13,9 C 10,6 C 90 % 1019,1 hPa 0,0 l/m 0 min 0 min 19 W/m 16,1 km/h (3 Bft) 100,00 %
23.05.2023 07:04 14,3 C 13,9 C 10,6 C 90 % 1019,1 hPa 0,0 l/m 0 min 0 min 18 W/m 12,9 km/h (3 Bft) 100,00 %
23.05.2023 07:06 14,3 C 13,9 C 10,6 C 91 % 1019,2 hPa 0,0 l/m 0 min 0 min 16 W/m 16,1 km/h (3 Bft) 96,61 %
23.05.2023 07:08 14,3 C 13,9 C 10,6 C 91 % 1019,2 hPa 0,0 l/m 0 min 0 min 14 W/m 19,3 km/h (3 Bft) 97,14 %
23.05.2023 07:10 14,3 C 13,9 C 10,6 C 91 % 1019,2 hPa 0,0 l/m 0 min 0 min 15 W/m 19,3 km/h (3 Bft) 100,00 %
23.05.2023 07:12 14,3 C 13,9 C 10,6 C 91 % 1019,1 hPa 0,0 l/m 0 min 0 min 17 W/m 12,9 km/h (3 Bft) 97,87 %
23.05.2023 07:14 14,3 C 13,9 C 10,6 C 91 % 1019,2 hPa 0,0 l/m 0 min 0 min 23 W/m 16,1 km/h (3 Bft) 100,00 %
23.05.2023 07:16 14,3 C 13,9 C 10,6 C 91 % 1019,2 hPa 0,0 l/m 0 min 0 min 22 W/m 19,3 km/h (3 Bft) 97,78 %
23.05.2023 07:18 14,3 C 13,9 C 10,6 C 91 % 1019,2 hPa 0,0 l/m 0 min 0 min 20 W/m 19,3 km/h (3 Bft) 100,00 %
23.05.2023 07:20 14,3 C 13,9 C 10,6 C 91 % 1019,3 hPa 0,0 l/m 0 min 0 min 19 W/m 19,3 km/h (3 Bft) 100,00 %
23.05.2023 07:22 14,3 C 13,9 C 10,6 C 91 % 1019,3 hPa 0,0 l/m 0 min 0 min 23 W/m 25,7 km/h (4 Bft) 100,00 %
23.05.2023 07:24 14,3 C 13,9 C 10,6 C 91 % 1019,2 hPa 0,0 l/m 0 min 0 min 30 W/m 25,7 km/h (4 Bft) 100,00 %
23.05.2023 07:26 14,3 C 13,9 C 10,6 C 91 % 1019,3 hPa 0,0 l/m 0 min 0 min 33 W/m 22,5 km/h (4 Bft) 100,00 %
23.05.2023 07:28 14,3 C 13,9 C 10,6 C 91 % 1019,2 hPa 0,0 l/m 0 min 0 min 38 W/m 19,3 km/h (3 Bft) 100,00 %
23.05.2023 07:30 14,3 C 13,9 C 10,6 C 91 % 1019,3 hPa 0,0 l/m 0 min 0 min 46 W/m 19,3 km/h (3 Bft) 100,00 %
23.05.2023 07:32 14,3 C 13,9 C 10,6 C 91 % 1019,4 hPa 0,0 l/m 0 min 0 min 52 W/m 19,3 km/h (3 Bft) 100,00 %
23.05.2023 07:34 14,3 C 13,9 C 10,6 C 91 % 1019,4 hPa 0,0 l/m 0 min 0 min 49 W/m 16,1 km/h (3 Bft) 100,00 %
23.05.2023 07:36 14,3 C 13,9 C 10,6 C 91 % 1019,4 hPa 0,0 l/m 0 min 0 min 41 W/m 22,5 km/h (4 Bft) 100,00 %
23.05.2023 07:38 14,3 C 13,9 C 10,6 C 91 % 1019,5 hPa 0,0 l/m 0 min 0 min 37 W/m 16,1 km/h (3 Bft) 97,87 %
23.05.2023 07:40 14,3 C 13,9 C 10,6 C 91 % 1019,5 hPa 0,0 l/m 0 min 0 min 33 W/m 16,1 km/h (3 Bft) 97,87 %
23.05.2023 07:42 14,3 C 13,9 C 10,6 C 91 % 1019,5 hPa 0,0 l/m 0 min 0 min 40 W/m 22,5 km/h (4 Bft) 98,15 %
23.05.2023 07:44 14,3 C 13,9 C 10,6 C 91 % 1019,5 hPa 0,0 l/m 0 min 0 min 41 W/m 12,9 km/h (3 Bft) 97,87 %
23.05.2023 07:46 14,3 C 13,9 C 10,6 C 91 % 1019,6 hPa 0,0 l/m 0 min 0 min 50 W/m 9,7 km/h (2 Bft) 100,00 %
23.05.2023 07:48 14,3 C 13,9 C 10,6 C 91 % 1019,7 hPa 0,0 l/m 0 min 0 min 62 W/m 25,7 km/h (4 Bft) 94,29 %
23.05.2023 07:50 14,3 C 13,9 C 10,6 C 91 % 1019,6 hPa 0,0 l/m 0 min 0 min 105 W/m 12,9 km/h (3 Bft) 96,08 %
23.05.2023 07:52 14,3 C 14,4 C 10,6 C 91 % 1019,6 hPa 0,0 l/m 0 min 0 min 96 W/m 9,7 km/h (2 Bft) 93,62 %
23.05.2023 07:54 14,4 C 14,4 C 10,6 C 91 % 1019,6 hPa 0,0 l/m 0 min 0 min 79 W/m 19,3 km/h (3 Bft) 93,62 %
23.05.2023 07:56 14,4 C 14,4 C 10,6 C 91 % 1019,7 hPa 0,0 l/m 0 min 0 min 80 W/m 12,9 km/h (3 Bft) 97,87 %
23.05.2023 07:58 14,4 C 14,4 C 10,6 C 91 % 1019,7 hPa 0,0 l/m 0 min 0 min 59 W/m 9,7 km/h (2 Bft) 95,65 %
23.05.2023 08:00 14,4 C 14,4 C 10,6 C 91 % 1019,6 hPa 0,0 l/m 0 min 0 min 33 W/m 9,7 km/h (2 Bft) 91,49 %
23.05.2023 08:02 14,4 C 13,9 C 10,6 C 91 % 1019,7 hPa 0,0 l/m 0 min 0 min 24 W/m 16,1 km/h (3 Bft) 95,74 %
23.05.2023 08:04 14,4 C 13,9 C 10,6 C 91 % 1019,7 hPa 0,0 l/m 0 min 0 min 26 W/m 16,1 km/h (3 Bft) 91,67 %
23.05.2023 08:06 14,4 C 13,9 C 10,6 C 91 % 1019,6 hPa 0,0 l/m 0 min 0 min 33 W/m 22,5 km/h (4 Bft) 93,48 %
23.05.2023 08:08 14,4 C 13,9 C 10,6 C 91 % 1019,7 hPa 0,0 l/m 0 min 0 min 27 W/m 6,4 km/h (2 Bft) 95,74 %
23.05.2023 08:10 14,4 C 13,9 C 10,6 C 91 % 1019,7 hPa 0,0 l/m 0 min 0 min 27 W/m 12,9 km/h (3 Bft) 91,49 %
23.05.2023 08:12 14,4 C 13,9 C 10,6 C 91 % 1019,7 hPa 0,0 l/m 0 min 0 min 38 W/m 19,3 km/h (3 Bft) 95,74 %
23.05.2023 08:14 14,4 C 13,9 C 10,6 C 91 % 1019,7 hPa 0,0 l/m 0 min 0 min 45 W/m 12,9 km/h (3 Bft) 95,74 %
23.05.2023 08:16 14,4 C 13,9 C 10,6 C 91 % 1019,8 hPa 0,0 l/m 0 min 0 min 48 W/m 19,3 km/h (3 Bft) 93,62 %
23.05.2023 08:18 14,4 C 13,9 C 10,6 C 91 % 1019,8 hPa 0,0 l/m 0 min 0 min 56 W/m 19,3 km/h (3 Bft) 95,74 %
23.05.2023 08:20 14,3 C 13,9 C 10,6 C 91 % 1019,8 hPa 0,0 l/m 0 min 0 min 58 W/m 12,9 km/h (3 Bft) 97,83 %
23.05.2023 08:22 14,3 C 13,9 C 10,6 C 91 % 1019,7 hPa 0,0 l/m 0 min 0 min 50 W/m 12,9 km/h (3 Bft) 100,00 %
23.05.2023 08:24 14,4 C 13,9 C 10,6 C 91 % 1019,8 hPa 0,0 l/m 0 min 0 min 34 W/m 16,1 km/h (3 Bft) 97,87 %
23.05.2023 08:26 14,3 C 13,9 C 10,6 C 91 % 1019,8 hPa 0,0 l/m 0 min 0 min 25 W/m 16,1 km/h (3 Bft) 97,87 %
23.05.2023 08:28 14,3 C 13,9 C 10,6 C 91 % 1019,8 hPa 0,0 l/m 0 min 0 min 20 W/m 12,9 km/h (3 Bft) 97,87 %
23.05.2023 08:30 14,3 C 13,9 C 10,6 C 91 % 1019,9 hPa 0,0 l/m 0 min 0 min 21 W/m 9,7 km/h (2 Bft) 97,87 %
23.05.2023 08:32 14,3 C 13,9 C 10,6 C 91 % 1019,8 hPa 0,0 l/m 0 min 0 min 25 W/m 19,3 km/h (3 Bft) 97,87 %
23.05.2023 08:34 14,3 C 13,9 C 10,6 C 91 % 1019,8 hPa 0,0 l/m 0 min 0 min 25 W/m 16,1 km/h (3 Bft) 95,65 %
23.05.2023 08:36 14,3 C 13,9 C 10,6 C 90 % 1019,9 hPa 0,0 l/m 0 min 0 min 23 W/m 12,9 km/h (3 Bft) 97,87 %
23.05.2023 08:38 14,3 C 13,9 C 10,6 C 90 % 1019,9 hPa 0,0 l/m 0 min 0 min 31 W/m 16,1 km/h (3 Bft) 97,87 %
23.05.2023 08:40 14,3 C 13,9 C 10,6 C 90 % 1019,9 hPa 0,0 l/m 0 min 0 min 36 W/m 12,9 km/h (3 Bft) 95,74 %
23.05.2023 08:42 14,3 C 13,9 C 10,6 C 90 % 1019,9 hPa 0,0 l/m 0 min 0 min 33 W/m 16,1 km/h (3 Bft) 100,00 %
23.05.2023 08:44 14,3 C 13,9 C 10,6 C 90 % 1019,9 hPa 0,0 l/m 0 min 0 min 36 W/m 9,7 km/h (2 Bft) 100,00 %
23.05.2023 08:46 14,3 C 13,9 C 10,6 C 90 % 1020,0 hPa 0,0 l/m 0 min 0 min 42 W/m 19,3 km/h (3 Bft) 100,00 %
23.05.2023 08:48 14,4 C 13,9 C 10,6 C 90 % 1020,0 hPa 0,0 l/m 0 min 0 min 45 W/m 9,7 km/h (2 Bft) 97,83 %
23.05.2023 08:50 14,4 C 13,9 C 10,6 C 90 % 1020,0 hPa 0,0 l/m 0 min 0 min 54 W/m 12,9 km/h (3 Bft) 100,00 %
23.05.2023 08:52 14,4 C 13,9 C 10,6 C 90 % 1020,0 hPa 0,0 l/m 0 min 0 min 69 W/m 25,7 km/h (4 Bft) 97,87 %
23.05.2023 08:54 14,4 C 14,4 C 10,6 C 90 % 1020,0 hPa 0,0 l/m 0 min 0 min 76 W/m 6,4 km/h (2 Bft) 97,87 %
23.05.2023 08:56 14,4 C 14,4 C 10,6 C 90 % 1020,0 hPa 0,0 l/m 0 min 0 min 76 W/m 22,5 km/h (4 Bft) 97,87 %
23.05.2023 08:58 14,4 C 14,4 C 10,6 C 90 % 1020,0 hPa 0,0 l/m 0 min 0 min 66 W/m 12,9 km/h (3 Bft) 100,00 %
23.05.2023 09:00 14,4 C 13,9 C 10,6 C 90 % 1020,0 hPa 0,0 l/m 0 min 0 min 56 W/m 19,3 km/h (3 Bft) 97,87 %
23.05.2023 09:02 14,5 C 13,9 C 10,6 C 90 % 1020,0 hPa 0,0 l/m 0 min 0 min 59 W/m 16,1 km/h (3 Bft) 97,83 %
23.05.2023 09:04 14,5 C 13,9 C 10,6 C 90 % 1020,0 hPa 0,0 l/m 0 min 0 min 87 W/m 16,1 km/h (3 Bft) 100,00 %
23.05.2023 09:06 14,6 C 14,4 C 10,6 C 90 % 1020,0 hPa 0,0 l/m 0 min 0 min 102 W/m 12,9 km/h (3 Bft) 97,87 %
23.05.2023 09:08 14,6 C 14,4 C 10,6 C 90 % 1020,0 hPa 0,0 l/m 0 min 0 min 122 W/m 16,1 km/h (3 Bft) 97,87 %
23.05.2023 09:10 14,6 C 14,4 C 11,1 C 90 % 1020,1 hPa 0,0 l/m 0 min 0 min 125 W/m 6,4 km/h (2 Bft) 95,74 %
23.05.2023 09:12 14,6 C 14,4 C 11,1 C 90 % 1020,1 hPa 0,0 l/m 0 min 0 min 80 W/m 19,3 km/h (3 Bft) 97,87 %
23.05.2023 09:14 14,6 C 14,4 C 11,1 C 90 % 1020,1 hPa 0,0 l/m 0 min 0 min 58 W/m 25,7 km/h (4 Bft) 97,87 %
23.05.2023 09:16 14,6 C 14,4 C 10,6 C 89 % 1020,2 hPa 0,0 l/m 0 min 0 min 49 W/m 16,1 km/h (3 Bft) 97,83 %
23.05.2023 09:18 14,6 C 14,4 C 10,6 C 89 % 1020,2 hPa 0,0 l/m 0 min 0 min 44 W/m 16,1 km/h (3 Bft) 97,87 %
23.05.2023 09:20 14,6 C 14,4 C 10,6 C 89 % 1020,2 hPa 0,0 l/m 0 min 0 min 37 W/m 22,5 km/h (4 Bft) 97,87 %
23.05.2023 09:22 14,6 C 13,9 C 10,6 C 89 % 1020,3 hPa 0,0 l/m 0 min 0 min 34 W/m 9,7 km/h (2 Bft) 97,87 %
23.05.2023 09:24 14,6 C 13,9 C 10,6 C 89 % 1020,3 hPa 0,0 l/m 0 min 0 min 30 W/m 9,7 km/h (2 Bft) 97,87 %
23.05.2023 09:26 14,6 C 13,9 C 10,6 C 89 % 1020,4 hPa 0,0 l/m 0 min 0 min 31 W/m 16,1 km/h (3 Bft) 95,74 %
23.05.2023 09:28 14,6 C 13,9 C 10,6 C 89 % 1020,3 hPa 0,0 l/m 0 min 0 min 50 W/m 16,1 km/h (3 Bft) 97,87 %
23.05.2023 09:30 14,6 C 13,9 C 10,6 C 89 % 1020,3 hPa 0,0 l/m 0 min 0 min 74 W/m 19,3 km/h (3 Bft) 95,65 %
23.05.2023 09:32 14,6 C 13,9 C 10,6 C 89 % 1020,4 hPa 0,0 l/m 0 min 0 min 80 W/m 19,3 km/h (3 Bft) 97,87 %
23.05.2023 09:34 14,6 C 13,9 C 10,6 C 90 % 1020,4 hPa 0,0 l/m 0 min 0 min 90 W/m 25,7 km/h (4 Bft) 95,74 %
23.05.2023 09:36 14,6 C 13,9 C 10,6 C 90 % 1020,5 hPa 0,0 l/m 0 min 0 min 105 W/m 12,9 km/h (3 Bft) 97,87 %
23.05.2023 09:38 14,6 C 14,4 C 10,6 C 90 % 1020,4 hPa 0,0 l/m 0 min 0 min 122 W/m 19,3 km/h (3 Bft) 93,62 %
23.05.2023 09:40 14,6 C 14,4 C 10,6 C 90 % 1020,5 hPa 0,0 l/m 0 min 0 min 149 W/m 19,3 km/h (3 Bft) 95,74 %
23.05.2023 09:42 14,5 C 14,4 C 10,6 C 90 % 1020,4 hPa 0,0 l/m 0 min 0 min 154 W/m 25,7 km/h (4 Bft) 95,74 %
23.05.2023 09:44 14,4 C 14,4 C 10,6 C 89 % 1020,4 hPa 0,0 l/m 0 min 0 min 149 W/m 19,3 km/h (3 Bft) 93,48 %
23.05.2023 09:46 14,4 C 14,4 C 11,1 C 89 % 1020,5 hPa 0,0 l/m 0 min 0 min 152 W/m 19,3 km/h (3 Bft) 95,74 %
23.05.2023 09:48 14,4 C 14,4 C 11,1 C 89 % 1020,5 hPa 0,0 l/m 0 min 0 min 158 W/m 16,1 km/h (3 Bft) 93,62 %
23.05.2023 09:50 14,5 C 14,4 C 11,1 C 89 % 1020,5 hPa 0,0 l/m 0 min 0 min 168 W/m 22,5 km/h (4 Bft) 97,87 %
23.05.2023 09:52 14,6 C 15,0 C 11,1 C 89 % 1020,5 hPa 0,0 l/m 0 min 0 min 170 W/m 19,3 km/h (3 Bft) 95,74 %
23.05.2023 09:54 14,6 C 15,0 C 11,1 C 89 % 1020,6 hPa 0,0 l/m 0 min 0 min 138 W/m 16,1 km/h (3 Bft) 97,87 %
23.05.2023 09:56 14,7 C 15,0 C 11,1 C 89 % 1020,5 hPa 0,0 l/m 0 min 0 min 101 W/m 22,5 km/h (4 Bft) 97,87 %
23.05.2023 09:58 14,7 C 14,4 C 11,1 C 89 % 1020,6 hPa 0,0 l/m 0 min 0 min 67 W/m 12,9 km/h (3 Bft) 97,83 %
23.05.2023 10:00 14,7 C 14,4 C 11,1 C 88 % 1020,6 hPa 0,0 l/m 0 min 0 min 55 W/m 9,7 km/h (2 Bft) 97,87 %
23.05.2023 10:02 14,7 C 14,4 C 11,1 C 88 % 1020,6 hPa 0,0 l/m 0 min 0 min 63 W/m 19,3 km/h (3 Bft) 97,87 %
23.05.2023 10:04 14,7 C 14,4 C 10,6 C 88 % 1020,6 hPa 0,0 l/m 0 min 0 min 48 W/m 16,1 km/h (3 Bft) 95,74 %
23.05.2023 10:06 14,7 C 13,9 C 10,6 C 88 % 1020,6 hPa 0,0 l/m 0 min 0 min 72 W/m 25,7 km/h (4 Bft) 97,87 %
23.05.2023 10:08 14,7 C 13,9 C 10,6 C 88 % 1020,7 hPa 0,0 l/m 0 min 0 min 126 W/m 22,5 km/h (4 Bft) 95,74 %
23.05.2023 10:10 14,6 C 13,9 C 10,6 C 88 % 1020,7 hPa 0,0 l/m 0 min 0 min 121 W/m 32,2 km/h (5 Bft) 95,74 %
23.05.2023 10:12 14,6 C 13,9 C 10,6 C 88 % 1020,8 hPa 0,0 l/m 0 min 0 min 148 W/m 38,6 km/h (5 Bft) 97,83 %
23.05.2023 10:14 14,5 C 13,9 C 10,6 C 88 % 1020,9 hPa 0,0 l/m 0 min 0 min 121 W/m 32,2 km/h (5 Bft) 100,00 %
23.05.2023 10:16 14,4 C 13,9 C 10,6 C 88 % 1020,8 hPa 0,0 l/m 0 min 0 min 98 W/m 22,5 km/h (4 Bft) 97,87 %
23.05.2023 10:18 14,3 C 13,9 C 10,6 C 88 % 1020,9 hPa 0,0 l/m 0 min 0 min 83 W/m 22,5 km/h (4 Bft) 100,00 %
23.05.2023 10:20 14,3 C 13,9 C 10,0 C 88 % 1020,9 hPa 0,0 l/m 0 min 0 min 80 W/m 22,5 km/h (4 Bft) 100,00 %
23.05.2023 10:22 14,3 C 13,3 C 10,0 C 88 % 1020,9 hPa 0,0 l/m 0 min 0 min 77 W/m 12,9 km/h (3 Bft) 100,00 %
23.05.2023 10:24 14,3 C 13,9 C 10,0 C 89 % 1020,9 hPa 0,0 l/m 0 min 0 min 71 W/m 12,9 km/h (3 Bft) 100,00 %
23.05.2023 10:26 14,3 C 13,9 C 10,0 C 89 % 1020,9 hPa 0,0 l/m 0 min 0 min 87 W/m 9,7 km/h (2 Bft) 100,00 %
23.05.2023 10:28 14,2 C 13,9 C 10,0 C 89 % 1021,0 hPa 0,0 l/m 0 min 0 min 75 W/m 16,1 km/h (3 Bft) 100,00 %
23.05.2023 10:30 14,1 C 13,3 C 10,0 C 89 % 1020,9 hPa 0,0 l/m 0 min 0 min 62 W/m 29,0 km/h (5 Bft) 100,00 %
23.05.2023 10:32 14,1 C 13,3 C 10,0 C 89 % 1021,0 hPa 0,0 l/m 0 min 0 min 69 W/m 16,1 km/h (3 Bft) 100,00 %
23.05.2023 10:34 14,1 C 13,3 C 10,0 C 89 % 1021,0 hPa 0,0 l/m 0 min 0 min 77 W/m 19,3 km/h (3 Bft) 100,00 %
23.05.2023 10:36 14,0 C 13,3 C 10,0 C 89 % 1021,0 hPa 0,0 l/m 0 min 0 min 72 W/m 12,9 km/h (3 Bft) 100,00 %
23.05.2023 10:38 14,0 C 13,3 C 10,0 C 89 % 1021,1 hPa 0,0 l/m 0 min 0 min 63 W/m 16,1 km/h (3 Bft) 100,00 %
23.05.2023 10:40 13,9 C 13,3 C 10,0 C 90 % 1021,1 hPa 0,0 l/m 0 min 0 min 64 W/m 22,5 km/h (4 Bft) 97,83 %
23.05.2023 10:42 13,9 C 13,3 C 9,4 C 90 % 1021,1 hPa 0,0 l/m 0 min 0 min 62 W/m 19,3 km/h (3 Bft) 100,00 %
23.05.2023 10:44 13,8 C 13,3 C 9,4 C 90 % 1021,2 hPa 0,0 l/m 0 min 0 min 60 W/m 22,5 km/h (4 Bft) 97,87 %
23.05.2023 10:46 13,8 C 13,3 C 9,4 C 90 % 1021,2 hPa 0,0 l/m 0 min 0 min 63 W/m 16,1 km/h (3 Bft) 95,74 %
23.05.2023 10:48 13,7 C 13,3 C 9,4 C 90 % 1021,2 hPa 0,0 l/m 0 min 0 min 64 W/m 25,7 km/h (4 Bft) 97,87 %
23.05.2023 10:50 13,7 C 12,8 C 9,4 C 90 % 1021,2 hPa 0,0 l/m 0 min 0 min 59 W/m 19,3 km/h (3 Bft) 97,87 %
23.05.2023 10:52 13,6 C 12,8 C 9,4 C 90 % 1021,2 hPa 0,0 l/m 0 min 0 min 60 W/m 19,3 km/h (3 Bft) 93,62 %
23.05.2023 10:54 13,6 C 13,3 C 9,4 C 90 % 1021,2 hPa 0,0 l/m 0 min 0 min 62 W/m 29,0 km/h (5 Bft) 97,83 %
23.05.2023 10:56 13,6 C 13,3 C 9,4 C 90 % 1021,3 hPa 0,0 l/m 0 min 0 min 58 W/m 22,5 km/h (4 Bft) 95,74 %
23.05.2023 10:58 13,5 C 12,8 C 9,4 C 90 % 1021,4 hPa 0,0 l/m 0 min 0 min 47 W/m 32,2 km/h (5 Bft) 97,87 %
23.05.2023 11:00 13,5 C 12,8 C 9,4 C 90 % 1021,3 hPa 0,0 l/m 0 min 0 min 46 W/m 25,7 km/h (4 Bft) 97,87 %
23.05.2023 11:02 13,4 C 12,8 C 9,4 C 90 % 1021,4 hPa 0,0 l/m 0 min 0 min 44 W/m 22,5 km/h (4 Bft) 95,74 %
23.05.2023 11:04 13,4 C 12,8 C 9,4 C 90 % 1021,4 hPa 0,0 l/m 0 min 0 min 46 W/m 29,0 km/h (5 Bft) 97,56 %
23.05.2023 11:06 13,3 C 12,8 C 8,9 C 90 % 1021,5 hPa 0,0 l/m 0 min 0 min 49 W/m 41,8 km/h (6 Bft) 97,87 %
23.05.2023 11:08 13,3 C 12,8 C 8,9 C 90 % 1021,6 hPa 0,0 l/m 0 min 0 min 53 W/m 25,7 km/h (4 Bft) 97,87 %
23.05.2023 11:10 13,2 C 12,8 C 8,9 C 90 % 1021,5 hPa 0,0 l/m 0 min 0 min 61 W/m 22,5 km/h (4 Bft) 97,87 %
23.05.2023 11:12 13,2 C 12,8 C 8,9 C 90 % 1021,6 hPa 0,0 l/m 0 min 0 min 59 W/m 35,4 km/h (5 Bft) 93,62 %
23.05.2023 11:14 13,1 C 12,8 C 8,9 C 90 % 1021,6 hPa 0,0 l/m 0 min 0 min 59 W/m 19,3 km/h (3 Bft) 95,65 %
23.05.2023 11:16 13,1 C 12,8 C 8,9 C 90 % 1021,6 hPa 0,0 l/m 0 min 0 min 65 W/m 22,5 km/h (4 Bft) 95,74 %
23.05.2023 11:18 13,1 C 12,8 C 8,9 C 90 % 1021,5 hPa 0,0 l/m 0 min 0 min 82 W/m 22,5 km/h (4 Bft) 97,87 %
23.05.2023 11:20 13,0 C 12,8 C 9,4 C 90 % 1021,6 hPa 0,0 l/m 0 min 0 min 88 W/m 12,9 km/h (3 Bft) 93,62 %
23.05.2023 11:22 13,1 C 12,8 C 9,4 C 90 % 1021,7 hPa 0,0 l/m 0 min 0 min 92 W/m 29,0 km/h (5 Bft) 91,49 %
23.05.2023 11:24 13,1 C 12,8 C 9,4 C 90 % 1021,6 hPa 0,0 l/m 0 min 0 min 88 W/m 19,3 km/h (3 Bft) 95,74 %
23.05.2023 11:26 13,1 C 12,8 C 9,4 C 89 % 1021,7 hPa 0,0 l/m 0 min 0 min 92 W/m 16,1 km/h (3 Bft) 95,74 %
23.05.2023 11:28 13,1 C 12,8 C 9,4 C 89 % 1021,7 hPa 0,0 l/m 0 min 0 min 100 W/m 22,5 km/h (4 Bft) 95,65 %
23.05.2023 11:30 13,1 C 12,8 C 9,4 C 89 % 1021,7 hPa 0,0 l/m 0 min 0 min 123 W/m 16,1 km/h (3 Bft) 97,87 %
23.05.2023 11:32 13,1 C 13,3 C 9,4 C 89 % 1021,7 hPa 0,0 l/m 0 min 0 min 181 W/m 25,7 km/h (4 Bft) 97,87 %
23.05.2023 11:34 13,1 C 13,3 C 9,4 C 88 % 1021,7 hPa 0,0 l/m 0 min 0 min 207 W/m 29,0 km/h (5 Bft) 100,00 %
23.05.2023 11:36 13,1 C 13,3 C 9,4 C 88 % 1021,7 hPa 0,0 l/m 0 min 0 min 194 W/m 29,0 km/h (5 Bft) 97,87 %
23.05.2023 11:38 13,1 C 13,3 C 9,4 C 87 % 1021,8 hPa 0,0 l/m 0 min 0 min 197 W/m 22,5 km/h (4 Bft) 95,74 %
23.05.2023 11:40 13,2 C 13,9 C 10,0 C 88 % 1021,8 hPa 0,0 l/m 0 min 0 min 211 W/m 19,3 km/h (3 Bft) 97,87 %
23.05.2023 11:42 13,2 C 13,9 C 10,0 C 87 % 1021,8 hPa 0,0 l/m 0 min 0 min 228 W/m 32,2 km/h (5 Bft) 97,83 %
23.05.2023 11:44 13,3 C 13,9 C 10,0 C 87 % 1021,8 hPa 0,0 l/m 0 min 0 min 267 W/m 12,9 km/h (3 Bft) 95,74 %
23.05.2023 11:46 13,3 C 13,9 C 10,0 C 87 % 1021,8 hPa 0,0 l/m 0 min 0 min 261 W/m 22,5 km/h (4 Bft) 95,74 %
23.05.2023 11:48 13,4 C 13,9 C 10,0 C 86 % 1021,8 hPa 0,0 l/m 0 min 0 min 262 W/m 19,3 km/h (3 Bft) 89,36 %
23.05.2023 11:50 13,4 C 14,4 C 10,6 C 86 % 1021,8 hPa 0,0 l/m 0 min 0 min 254 W/m 19,3 km/h (3 Bft) 95,74 %
23.05.2023 11:52 13,6 C 14,4 C 10,0 C 86 % 1021,8 hPa 0,0 l/m 0 min 0 min 220 W/m 19,3 km/h (3 Bft) 93,62 %
23.05.2023 11:54 13,6 C 14,4 C 10,6 C 85 % 1021,8 hPa 0,0 l/m 0 min 0 min 251 W/m 16,1 km/h (3 Bft) 93,62 %
23.05.2023 11:56 13,7 C 14,4 C 10,6 C 85 % 1021,8 hPa 0,0 l/m 0 min 0 min 295 W/m 19,3 km/h (3 Bft) 95,65 %
23.05.2023 11:58 13,7 C 14,4 C 10,6 C 85 % 1021,8 hPa 0,0 l/m 0 min 0 min 257 W/m 25,7 km/h (4 Bft) 93,62 %
23.05.2023 12:00 13,8 C 14,4 C 10,6 C 84 % 1021,7 hPa 0,0 l/m 0 min 0 min 258 W/m 16,1 km/h (3 Bft) 93,62 %
23.05.2023 12:02 13,8 C 14,4 C 10,6 C 84 % 1021,8 hPa 0,0 l/m 0 min 0 min 242 W/m 19,3 km/h (3 Bft) 93,62 %
23.05.2023 12:04 13,9 C 14,4 C 10,6 C 83 % 1021,7 hPa 0,0 l/m 0 min 0 min 240 W/m 19,3 km/h (3 Bft) 93,75 %
23.05.2023 12:07 13,9 C 14,4 C 10,6 C 83 % 1021,8 hPa 0,0 l/m 0 min 0 min 252 W/m 19,3 km/h (3 Bft) 93,51 %
23.05.2023 12:08 13,9 C 14,4 C 10,6 C 82 % 1021,8 hPa 0,0 l/m 0 min 0 min 249 W/m 9,7 km/h (2 Bft) 86,96 %
23.05.2023 12:12 14,1 C 14,4 C 10,6 C 82 % 1021,8 hPa 0,0 l/m 0 min 0 min 266 W/m 19,3 km/h (3 Bft) 98,08 %
23.05.2023 12:14 14,1 C 14,4 C 10,6 C 81 % 1021,8 hPa 0,0 l/m 0 min 0 min 274 W/m 25,7 km/h (4 Bft) 97,87 %
23.05.2023 12:16 14,1 C 15,6 C 11,1 C 81 % 1021,7 hPa 0,0 l/m 0 min 0 min 247 W/m 12,9 km/h (3 Bft) 97,87 %
23.05.2023 12:18 14,3 C 16,7 C 12,2 C 82 % 1021,7 hPa 0,0 l/m 0 min 0 min 253 W/m 12,9 km/h (3 Bft) 97,87 %
23.05.2023 12:20 14,3 C 17,8 C 13,3 C 82 % 1021,7 hPa 0,0 l/m 2 min 0 min 539 W/m 19,3 km/h (3 Bft) 97,87 %
23.05.2023 12:22 14,6 C 18,9 C 14,4 C 81 % 1021,7 hPa 0,0 l/m 2 min 0 min 814 W/m 16,1 km/h (3 Bft) 97,83 %
23.05.2023 12:24 14,8 C 20,0 C 15,6 C 81 % 1021,7 hPa 0,0 l/m 2 min 0 min 967 W/m 16,1 km/h (3 Bft) 97,87 %
23.05.2023 12:26 15,0 C 19,4 C 15,0 C 80 % 1021,7 hPa 0,0 l/m 2 min 0 min 967 W/m 19,3 km/h (3 Bft) 93,62 %
23.05.2023 12:28 15,2 C 19,4 C 15,0 C 79 % 1021,7 hPa 0,0 l/m 2 min 0 min 859 W/m 16,1 km/h (3 Bft) 93,62 %
23.05.2023 12:30 15,3 C 18,9 C 14,4 C 78 % 1021,8 hPa 0,0 l/m 2 min 0 min 741 W/m 19,3 km/h (3 Bft) 97,87 %
23.05.2023 12:32 15,4 C 18,3 C 14,4 C 77 % 1021,7 hPa 0,0 l/m 2 min 0 min 609 W/m 29,0 km/h (5 Bft) 97,87 %
23.05.2023 12:34 15,5 C 17,8 C 13,9 C 76 % 1021,7 hPa 0,0 l/m 2 min 0 min 476 W/m 16,1 km/h (3 Bft) 95,74 %
23.05.2023 12:36 15,6 C 17,2 C 12,8 C 76 % 1021,8 hPa 0,0 l/m 0 min 0 min 334 W/m 16,1 km/h (3 Bft) 97,83 %
23.05.2023 12:38 15,6 C 16,7 C 12,2 C 75 % 1021,7 hPa 0,0 l/m 0 min 0 min 271 W/m 29,0 km/h (5 Bft) 97,87 %
23.05.2023 12:40 15,6 C 16,1 C 12,2 C 75 % 1021,7 hPa 0,0 l/m 0 min 0 min 259 W/m 16,1 km/h (3 Bft) 95,74 %
23.05.2023 12:42 15,4 C 16,1 C 12,2 C 75 % 1021,7 hPa 0,0 l/m 0 min 0 min 330 W/m 12,9 km/h (3 Bft) 97,87 %
23.05.2023 12:44 15,5 C 16,7 C 12,8 C 76 % 1021,7 hPa 0,0 l/m 2 min 0 min 446 W/m 6,4 km/h (2 Bft) 97,87 %
23.05.2023 12:46 15,5 C 16,7 C 12,8 C 76 % 1021,7 hPa 0,0 l/m 2 min 0 min 415 W/m 22,5 km/h (4 Bft) 97,87 %
23.05.2023 12:48 15,5 C 16,7 C 12,8 C 76 % 1021,7 hPa 0,0 l/m 0 min 0 min 391 W/m 12,9 km/h (3 Bft) 95,74 %
23.05.2023 12:50 15,6 C 16,7 C 12,8 C 76 % 1021,7 hPa 0,0 l/m 2 min 0 min 448 W/m 19,3 km/h (3 Bft) 95,65 %
23.05.2023 12:52 15,6 C 17,2 C 12,8 C 76 % 1021,8 hPa 0,0 l/m 0 min 0 min 408 W/m 19,3 km/h (3 Bft) 97,87 %
23.05.2023 12:54 15,7 C 16,7 C 12,8 C 75 % 1021,7 hPa 0,0 l/m 0 min 0 min 352 W/m 22,5 km/h (4 Bft) 97,87 %
23.05.2023 12:56 15,7 C 16,7 C 12,8 C 75 % 1021,8 hPa 0,0 l/m 0 min 0 min 260 W/m 12,9 km/h (3 Bft) 97,87 %
23.05.2023 12:58 15,8 C 16,7 C 12,2 C 75 % 1021,8 hPa 0,0 l/m 0 min 0 min 242 W/m 16,1 km/h (3 Bft) 97,87 %
23.05.2023 13:00 15,8 C 16,7 C 12,2 C 75 % 1021,9 hPa 0,0 l/m 0 min 0 min 259 W/m 16,1 km/h (3 Bft) 95,74 %
23.05.2023 13:02 15,8 C 16,7 C 12,2 C 74 % 1021,9 hPa 0,0 l/m 0 min 0 min 327 W/m 29,0 km/h (5 Bft) 97,87 %
23.05.2023 13:04 15,8 C 17,8 C 12,8 C 74 % 1021,8 hPa 0,0 l/m 0 min 0 min 348 W/m 22,5 km/h (4 Bft) 100,00 %
23.05.2023 13:06 15,9 C 17,8 C 13,3 C 75 % 1021,9 hPa 0,0 l/m 0 min 0 min 371 W/m 19,3 km/h (3 Bft) 100,00 %
23.05.2023 13:08 16,1 C 17,8 C 13,3 C 74 % 1021,9 hPa 0,0 l/m 0 min 0 min 403 W/m 25,7 km/h (4 Bft) 100,00 %
23.05.2023 13:10 16,1 C 17,2 C 12,8 C 72 % 1021,9 hPa 0,0 l/m 0 min 0 min 413 W/m 29,0 km/h (5 Bft) 100,00 %
23.05.2023 13:12 16,1 C 17,8 C 13,3 C 72 % 1022,0 hPa 0,0 l/m 2 min 0 min 458 W/m 19,3 km/h (3 Bft) 100,00 %
23.05.2023 13:14 16,1 C 20,0 C 14,4 C 72 % 1021,9 hPa 0,0 l/m 2 min 0 min 547 W/m 22,5 km/h (4 Bft) 100,00 %
23.05.2023 13:16 16,3 C 20,0 C 15,6 C 72 % 1021,9 hPa 0,0 l/m 2 min 0 min 1049 W/m 19,3 km/h (3 Bft) 100,00 %
23.05.2023 13:18 16,4 C 18,9 C 14,4 C 71 % 1022,0 hPa 0,0 l/m 2 min 0 min 468 W/m 12,9 km/h (3 Bft) 100,00 %
23.05.2023 13:20 16,5 C 17,8 C 13,9 C 71 % 1022,0 hPa 0,0 l/m 0 min 0 min 331 W/m 16,1 km/h (3 Bft) 100,00 %
23.05.2023 13:22 16,4 C 17,2 C 12,8 C 71 % 1022,0 hPa 0,0 l/m 0 min 0 min 289 W/m 19,3 km/h (3 Bft) 100,00 %
23.05.2023 13:24 16,3 C 17,2 C 12,8 C 71 % 1022,0 hPa 0,0 l/m 0 min 0 min 282 W/m 12,9 km/h (3 Bft) 100,00 %
23.05.2023 13:26 16,3 C 16,7 C 12,8 C 71 % 1022,0 hPa 0,0 l/m 0 min 0 min 309 W/m 16,1 km/h (3 Bft) 100,00 %
23.05.2023 13:28 16,2 C 16,7 C 12,8 C 71 % 1021,9 hPa 0,0 l/m 0 min 0 min 339 W/m 12,9 km/h (3 Bft) 95,74 %
23.05.2023 13:30 16,2 C 17,2 C 12,8 C 71 % 1022,0 hPa 0,0 l/m 0 min 0 min 385 W/m 6,4 km/h (2 Bft) 97,87 %
23.05.2023 13:32 16,2 C 17,2 C 12,8 C 72 % 1022,0 hPa 0,0 l/m 2 min 0 min 464 W/m 38,6 km/h (5 Bft) 97,87 %
23.05.2023 13:34 16,3 C 17,2 C 12,8 C 71 % 1022,0 hPa 0,0 l/m 0 min 0 min 393 W/m 16,1 km/h (3 Bft) 97,83 %
23.05.2023 13:36 16,3 C 17,2 C 12,8 C 71 % 1022,0 hPa 0,0 l/m 0 min 0 min 318 W/m 16,1 km/h (3 Bft) 95,74 %
23.05.2023 13:38 16,3 C 17,2 C 12,8 C 71 % 1022,0 hPa 0,0 l/m 0 min 0 min 287 W/m 19,3 km/h (3 Bft) 95,74 %
23.05.2023 13:40 16,2 C 16,7 C 12,2 C 71 % 1022,1 hPa 0,0 l/m 0 min 0 min 268 W/m 16,1 km/h (3 Bft) 95,74 %
23.05.2023 13:42 16,1 C 16,1 C 12,2 C 71 % 1022,1 hPa 0,0 l/m 0 min 0 min 244 W/m 19,3 km/h (3 Bft) 95,74 %
23.05.2023 13:44 16,1 C 16,1 C 12,2 C 71 % 1022,1 hPa 0,0 l/m 0 min 0 min 255 W/m 25,7 km/h (4 Bft) 95,74 %
23.05.2023 13:46 16,0 C 16,1 C 12,2 C 72 % 1022,1 hPa 0,0 l/m 0 min 0 min 247 W/m 12,9 km/h (3 Bft) 93,62 %
23.05.2023 13:48 16,0 C 16,1 C 12,2 C 72 % 1022,1 hPa 0,0 l/m 0 min 0 min 283 W/m 22,5 km/h (4 Bft) 93,48 %
23.05.2023 13:50 16,0 C 18,3 C 12,8 C 72 % 1022,1 hPa 0,0 l/m 0 min 0 min 336 W/m 19,3 km/h (3 Bft) 93,62 %
23.05.2023 13:52 16,1 C 18,9 C 12,8 C 72 % 1022,1 hPa 0,0 l/m 2 min 0 min 516 W/m 22,5 km/h (4 Bft) 95,74 %
23.05.2023 13:54 16,1 C 19,4 C 13,3 C 71 % 1022,1 hPa 0,0 l/m 2 min 0 min 564 W/m 6,4 km/h (2 Bft) 93,62 %
23.05.2023 13:56 16,3 C 21,7 C 13,9 C 71 % 1022,1 hPa 0,0 l/m 2 min 0 min 860 W/m 22,5 km/h (4 Bft) 95,74 %
23.05.2023 13:58 16,6 C 21,1 C 13,9 C 71 % 1022,1 hPa 0,0 l/m 2 min 0 min 1048 W/m 12,9 km/h (3 Bft) 95,74 %
23.05.2023 14:00 16,7 C 20,0 C 13,9 C 70 % 1022,1 hPa 0,0 l/m 2 min 0 min 455 W/m 16,1 km/h (3 Bft) 95,74 %
23.05.2023 14:02 16,8 C 19,4 C 13,9 C 69 % 1022,1 hPa 0,0 l/m 0 min 0 min 377 W/m 29,0 km/h (5 Bft) 97,83 %
23.05.2023 14:04 16,8 C 18,9 C 13,3 C 69 % 1022,1 hPa 0,0 l/m 0 min 0 min 328 W/m 29,0 km/h (5 Bft) 93,75 %
23.05.2023 14:06 16,8 C 18,9 C 13,3 C 69 % 1022,1 hPa 0,0 l/m 0 min 0 min 336 W/m 29,0 km/h (5 Bft) 94,00 %
23.05.2023 14:08 16,8 C 19,4 C 13,3 C 69 % 1022,1 hPa 0,0 l/m 0 min 0 min 336 W/m 25,7 km/h (4 Bft) 95,74 %
23.05.2023 14:10 16,8 C 20,0 C 12,8 C 67 % 1022,2 hPa 0,0 l/m 2 min 0 min 455 W/m 12,9 km/h (3 Bft) 97,87 %
23.05.2023 14:12 16,8 C 21,7 C 13,3 C 67 % 1022,1 hPa 0,0 l/m 2 min 0 min 832 W/m 16,1 km/h (3 Bft) 100,00 %
23.05.2023 14:14 17,0 C 22,8 C 13,3 C 66 % 1022,1 hPa 0,0 l/m 2 min 0 min 1003 W/m 12,9 km/h (3 Bft) 100,00 %
23.05.2023 14:16 17,2 C 22,2 C 13,9 C 67 % 1022,2 hPa 0,0 l/m 2 min 0 min 1028 W/m 12,9 km/h (3 Bft) 100,00 %
23.05.2023 14:18 17,3 C 21,1 C 13,9 C 67 % 1022,1 hPa 0,0 l/m 2 min 0 min 681 W/m 12,9 km/h (3 Bft) 97,87 %
23.05.2023 14:20 17,2 C 20,0 C 13,3 C 66 % 1022,1 hPa 0,0 l/m 0 min 0 min 375 W/m 19,3 km/h (3 Bft) 97,87 %
23.05.2023 14:22 17,2 C 20,0 C 13,3 C 66 % 1022,1 hPa 0,0 l/m 2 min 0 min 433 W/m 12,9 km/h (3 Bft) 100,00 %
23.05.2023 14:24 17,2 C 19,4 C 13,3 C 66 % 1022,1 hPa 0,0 l/m 0 min 0 min 360 W/m 12,9 km/h (3 Bft) 100,00 %
23.05.2023 14:26 17,1 C 19,4 C 13,3 C 65 % 1022,1 hPa 0,0 l/m 0 min 0 min 369 W/m 12,9 km/h (3 Bft) 100,00 %
23.05.2023 14:28 17,1 C 21,1 C 13,3 C 65 % 1022,1 hPa 0,0 l/m 2 min 0 min 408 W/m 9,7 km/h (2 Bft) 97,87 %
23.05.2023 14:30 17,2 C 22,8 C 13,9 C 65 % 1022,1 hPa 0,0 l/m 2 min 0 min 1023 W/m 16,1 km/h (3 Bft) 100,00 %
23.05.2023 14:32 17,3 C 22,8 C 13,9 C 64 % 1022,2 hPa 0,0 l/m 2 min 0 min 960 W/m 12,9 km/h (3 Bft) 100,00 %
23.05.2023 14:34 17,4 C 21,1 C 13,9 C 63 % 1022,2 hPa 0,0 l/m 2 min 0 min 724 W/m 25,7 km/h (4 Bft) 100,00 %
23.05.2023 14:36 17,3 C 21,1 C 13,3 C 63 % 1022,2 hPa 0,0 l/m 2 min 0 min 420 W/m 22,5 km/h (4 Bft) 100,00 %
23.05.2023 14:38 17,4 C 22,2 C 13,9 C 63 % 1022,1 hPa 0,0 l/m 2 min 0 min 804 W/m 22,5 km/h (4 Bft) 100,00 %
23.05.2023 14:40 17,4 C 22,2 C 13,9 C 64 % 1022,1 hPa 0,0 l/m 2 min 0 min 822 W/m 22,5 km/h (4 Bft) 100,00 %
23.05.2023 14:42 17,6 C 22,8 C 13,9 C 64 % 1022,2 hPa 0,0 l/m 2 min 0 min 808 W/m 25,7 km/h (4 Bft) 100,00 %
23.05.2023 14:44 17,7 C 23,3 C 13,9 C 63 % 1022,1 hPa 0,0 l/m 2 min 0 min 963 W/m 19,3 km/h (3 Bft) 100,00 %
23.05.2023 14:46 17,8 C 24,4 C 14,4 C 64 % 1022,1 hPa 0,0 l/m 2 min 0 min 997 W/m 22,5 km/h (4 Bft) 100,00 %
23.05.2023 14:48 17,9 C 23,3 C 14,4 C 63 % 1022,0 hPa 0,0 l/m 2 min 0 min 997 W/m 16,1 km/h (3 Bft) 100,00 %
23.05.2023 14:50 18,0 C 22,2 C 14,4 C 62 % 1022,0 hPa 0,0 l/m 2 min 0 min 997 W/m 12,9 km/h (3 Bft) 100,00 %
23.05.2023 14:52 18,0 C 21,7 C 13,9 C 62 % 1022,1 hPa 0,0 l/m 2 min 0 min 984 W/m 16,1 km/h (3 Bft) 100,00 %
23.05.2023 14:54 17,9 C 21,1 C 13,9 C 62 % 1022,0 hPa 0,0 l/m 0 min 0 min 383 W/m 19,3 km/h (3 Bft) 97,87 %
23.05.2023 14:56 17,9 C 20,6 C 13,9 C 61 % 1022,1 hPa 0,0 l/m 0 min 0 min 394 W/m 19,3 km/h (3 Bft) 95,74 %
23.05.2023 14:58 17,7 C 19,4 C 13,3 C 62 % 1022,1 hPa 0,0 l/m 0 min 0 min 376 W/m 16,1 km/h (3 Bft) 97,83 %
23.05.2023 15:00 17,6 C 19,4 C 13,9 C 62 % 1022,0 hPa 0,0 l/m 0 min 0 min 380 W/m 16,1 km/h (3 Bft) 100,00 %
23.05.2023 15:02 17,6 C 19,4 C 13,9 C 63 % 1022,0 hPa 0,0 l/m 0 min 0 min 356 W/m 22,5 km/h (4 Bft) 100,00 %
23.05.2023 15:04 17,6 C 21,7 C 13,9 C 64 % 1022,1 hPa 0,0 l/m 0 min 0 min 348 W/m 9,7 km/h (2 Bft) 100,00 %
23.05.2023 15:06 17,8 C 21,7 C 13,9 C 64 % 1022,0 hPa 0,0 l/m 0 min 0 min 348 W/m 12,9 km/h (3 Bft) 100,00 %
23.05.2023 15:08 17,9 C 21,1 C 14,4 C 63 % 1022,1 hPa 0,0 l/m 0 min 0 min 378 W/m 19,3 km/h (3 Bft) 100,00 %
23.05.2023 15:10 17,9 C 21,7 C 14,4 C 63 % 1022,1 hPa 0,0 l/m 2 min 0 min 701 W/m 22,5 km/h (4 Bft) 100,00 %
23.05.2023 15:12 17,9 C 20,6 C 14,4 C 63 % 1022,0 hPa 0,0 l/m 2 min 0 min 1005 W/m 9,7 km/h (2 Bft) 100,00 %
23.05.2023 15:14 17,9 C 20,0 C 14,4 C 62 % 1022,1 hPa 0,0 l/m 2 min 0 min 797 W/m 16,1 km/h (3 Bft) 100,00 %
23.05.2023 15:16 17,9 C 19,4 C 13,9 C 62 % 1022,1 hPa 0,0 l/m 2 min 0 min 447 W/m 29,0 km/h (5 Bft) 100,00 %
23.05.2023 15:18 17,8 C 18,9 C 13,9 C 61 % 1022,0 hPa 0,0 l/m 0 min 0 min 362 W/m 19,3 km/h (3 Bft) 100,00 %
23.05.2023 15:20 17,8 C 19,4 C 13,9 C 62 % 1022,1 hPa 0,0 l/m 0 min 0 min 383 W/m 12,9 km/h (3 Bft) 100,00 %
23.05.2023 15:22 17,8 C 18,9 C 13,9 C 62 % 1022,1 hPa 0,0 l/m 0 min 0 min 356 W/m 29,0 km/h (5 Bft) 97,87 %
23.05.2023 15:24 17,7 C 18,9 C 13,9 C 62 % 1022,0 hPa 0,0 l/m 0 min 0 min 370 W/m 25,7 km/h (4 Bft) 100,00 %
23.05.2023 15:26 17,6 C 18,9 C 13,9 C 62 % 1022,0 hPa 0,0 l/m 2 min 0 min 417 W/m 29,0 km/h (5 Bft) 100,00 %
23.05.2023 15:28 17,6 C 18,9 C 13,9 C 62 % 1022,1 hPa 0,0 l/m 2 min 0 min 458 W/m 19,3 km/h (3 Bft) 100,00 %
23.05.2023 15:30 17,5 C 18,9 C 13,3 C 62 % 1022,0 hPa 0,0 l/m 0 min 0 min 333 W/m 16,1 km/h (3 Bft) 93,62 %
23.05.2023 15:32 17,6 C 18,9 C 13,9 C 63 % 1022,1 hPa 0,0 l/m 0 min 0 min 367 W/m 12,9 km/h (3 Bft) 100,00 %
23.05.2023 15:34 17,6 C 19,4 C 13,9 C 62 % 1022,1 hPa 0,0 l/m 2 min 0 min 421 W/m 19,3 km/h (3 Bft) 100,00 %
23.05.2023 15:36 17,6 C 18,9 C 13,9 C 63 % 1022,1 hPa 0,0 l/m 0 min 0 min 344 W/m 22,5 km/h (4 Bft) 100,00 %
23.05.2023 15:38 17,7 C 18,9 C 13,9 C 63 % 1022,1 hPa 0,0 l/m 0 min 0 min 349 W/m 19,3 km/h (3 Bft) 100,00 %
23.05.2023 15:40 17,7 C 18,9 C 13,9 C 62 % 1022,1 hPa 0,0 l/m 2 min 0 min 388 W/m 6,4 km/h (2 Bft) 95,74 %
23.05.2023 15:42 17,7 C 18,9 C 13,9 C 62 % 1022,1 hPa 0,0 l/m 0 min 0 min 353 W/m 12,9 km/h (3 Bft) 93,48 %
23.05.2023 15:44 17,6 C 18,3 C 13,9 C 61 % 1022,1 hPa 0,0 l/m 2 min 0 min 390 W/m 25,7 km/h (4 Bft) 95,74 %
23.05.2023 15:46 17,5 C 18,9 C 13,9 C 61 % 1022,1 hPa 0,0 l/m 2 min 0 min 453 W/m 22,5 km/h (4 Bft) 97,14 %
23.05.2023 15:48 17,5 C 19,4 C 13,9 C 61 % 1022,1 hPa 0,0 l/m 2 min 0 min 541 W/m 19,3 km/h (3 Bft) 93,62 %
23.05.2023 15:50 17,4 C 19,4 C 13,9 C 60 % 1022,1 hPa 0,0 l/m 2 min 0 min 507 W/m 16,1 km/h (3 Bft) 96,61 %
23.05.2023 15:52 17,5 C 19,4 C 13,9 C 61 % 1022,0 hPa 0,0 l/m 2 min 0 min 506 W/m 16,1 km/h (3 Bft) 94,29 %
23.05.2023 15:54 17,6 C 18,9 C 13,9 C 60 % 1022,1 hPa 0,0 l/m 2 min 0 min 451 W/m 19,3 km/h (3 Bft) 94,92 %
23.05.2023 15:56 17,6 C 18,9 C 13,9 C 60 % 1022,1 hPa 0,0 l/m 0 min 0 min 330 W/m 32,2 km/h (5 Bft) 94,29 %
23.05.2023 15:58 17,6 C 18,3 C 13,3 C 60 % 1022,1 hPa 0,0 l/m 0 min 0 min 290 W/m 16,1 km/h (3 Bft) 95,74 %
23.05.2023 16:00 17,5 C 17,8 C 13,3 C 60 % 1022,1 hPa 0,0 l/m 0 min 0 min 275 W/m 29,0 km/h (5 Bft) 95,65 %
23.05.2023 16:02 17,4 C 17,8 C 13,3 C 60 % 1022,1 hPa 0,0 l/m 0 min 0 min 271 W/m 9,7 km/h (2 Bft) 93,62 %
23.05.2023 16:04 17,3 C 17,8 C 13,3 C 61 % 1022,1 hPa 0,0 l/m 0 min 0 min 276 W/m 22,5 km/h (4 Bft) 95,24 %
23.05.2023 16:06 17,4 C 17,8 C 13,9 C 61 % 1022,1 hPa 0,0 l/m 0 min 0 min 275 W/m 19,3 km/h (3 Bft) 91,53 %
23.05.2023 16:08 17,4 C 18,3 C 13,9 C 60 % 1022,1 hPa 0,0 l/m 0 min 0 min 310 W/m 16,1 km/h (3 Bft) 93,62 %
23.05.2023 16:10 17,4 C 18,3 C 13,9 C 60 % 1022,0 hPa 0,0 l/m 0 min 0 min 334 W/m 22,5 km/h (4 Bft) 91,43 %
23.05.2023 16:12 17,4 C 18,9 C 13,9 C 61 % 1022,0 hPa 0,0 l/m 2 min 0 min 374 W/m 16,1 km/h (3 Bft) 93,62 %
23.05.2023 16:14 17,4 C 20,0 C 13,9 C 60 % 1022,0 hPa 0,0 l/m 2 min 0 min 437 W/m 16,1 km/h (3 Bft) 93,62 %
23.05.2023 16:16 17,6 C 21,1 C 13,9 C 60 % 1022,0 hPa 0,0 l/m 2 min 0 min 779 W/m 19,3 km/h (3 Bft) 93,48 %
23.05.2023 16:18 17,7 C 22,2 C 14,4 C 60 % 1022,0 hPa 0,0 l/m 2 min 0 min 648 W/m 19,3 km/h (3 Bft) 95,74 %
23.05.2023 16:20 17,9 C 22,2 C 14,4 C 59 % 1022,0 hPa 0,0 l/m 2 min 0 min 679 W/m 19,3 km/h (3 Bft) 95,74 %
23.05.2023 16:22 18,0 C 22,8 C 14,4 C 59 % 1022,0 hPa 0,0 l/m 2 min 0 min 620 W/m 12,9 km/h (3 Bft) 91,49 %
23.05.2023 16:24 18,2 C 22,8 C 14,4 C 59 % 1022,0 hPa 0,0 l/m 2 min 0 min 601 W/m 19,3 km/h (3 Bft) 95,74 %
23.05.2023 16:26 18,2 C 21,1 C 14,4 C 58 % 1022,0 hPa 0,0 l/m 0 min 0 min 305 W/m 16,1 km/h (3 Bft) 93,62 %
23.05.2023 16:28 18,2 C 20,6 C 13,9 C 59 % 1022,1 hPa 0,0 l/m 0 min 0 min 321 W/m 16,1 km/h (3 Bft) 95,74 %
23.05.2023 16:30 18,1 C 20,0 C 13,9 C 58 % 1022,1 hPa 0,0 l/m 2 min 0 min 378 W/m 16,1 km/h (3 Bft) 97,83 %
23.05.2023 16:32 18,0 C 20,0 C 13,9 C 58 % 1022,1 hPa 0,0 l/m 2 min 0 min 368 W/m 12,9 km/h (3 Bft) 93,62 %
23.05.2023 16:34 17,9 C 20,0 C 13,3 C 57 % 1022,1 hPa 0,0 l/m 2 min 0 min 365 W/m 16,1 km/h (3 Bft) 95,74 %
23.05.2023 16:36 17,8 C 20,0 C 13,9 C 59 % 1022,0 hPa 0,0 l/m 2 min 0 min 405 W/m 16,1 km/h (3 Bft) 95,74 %
23.05.2023 16:38 17,8 C 21,1 C 13,9 C 58 % 1022,0 hPa 0,0 l/m 2 min 0 min 556 W/m 12,9 km/h (3 Bft) 95,74 %
23.05.2023 16:40 17,9 C 22,2 C 13,9 C 58 % 1022,1 hPa 0,0 l/m 2 min 0 min 721 W/m 12,9 km/h (3 Bft) 95,74 %
23.05.2023 16:42 18,0 C 22,8 C 13,9 C 57 % 1022,0 hPa 0,0 l/m 2 min 0 min 714 W/m 19,3 km/h (3 Bft) 95,74 %
23.05.2023 16:44 18,1 C 22,8 C 14,4 C 57 % 1022,0 hPa 0,0 l/m 2 min 0 min 710 W/m 16,1 km/h (3 Bft) 95,65 %
23.05.2023 16:46 18,2 C 21,7 C 14,4 C 58 % 1022,0 hPa 0,0 l/m 0 min 0 min 297 W/m 29,0 km/h (5 Bft) 97,87 %
23.05.2023 16:48 18,3 C 20,6 C 14,4 C 58 % 1022,1 hPa 0,0 l/m 0 min 0 min 245 W/m 12,9 km/h (3 Bft) 100,00 %
23.05.2023 16:50 18,3 C 20,0 C 14,4 C 58 % 1022,1 hPa 0,0 l/m 0 min 0 min 247 W/m 22,5 km/h (4 Bft) 100,00 %
23.05.2023 16:52 18,2 C 20,6 C 13,9 C 58 % 1022,1 hPa 0,0 l/m 0 min 0 min 259 W/m 16,1 km/h (3 Bft) 100,00 %
23.05.2023 16:54 18,2 C 22,2 C 14,4 C 58 % 1022,1 hPa 0,0 l/m 2 min 0 min 643 W/m 19,3 km/h (3 Bft) 100,00 %
23.05.2023 16:56 18,3 C 23,3 C 15,0 C 59 % 1022,0 hPa 0,0 l/m 2 min 0 min 697 W/m 16,1 km/h (3 Bft) 97,87 %
23.05.2023 16:58 18,4 C 22,2 C 14,4 C 57 % 1022,1 hPa 0,0 l/m 2 min 0 min 600 W/m 25,7 km/h (4 Bft) 100,00 %
23.05.2023 17:00 18,4 C 22,8 C 15,0 C 57 % 1022,1 hPa 0,0 l/m 2 min 0 min 577 W/m 22,5 km/h (4 Bft) 100,00 %
23.05.2023 17:02 18,4 C 22,2 C 14,4 C 56 % 1022,0 hPa 0,0 l/m 2 min 0 min 589 W/m 16,1 km/h (3 Bft) 100,00 %
23.05.2023 17:04 18,4 C 21,7 C 14,4 C 56 % 1022,0 hPa 0,0 l/m 2 min 0 min 633 W/m 19,3 km/h (3 Bft) 100,00 %
23.05.2023 17:06 18,4 C 21,7 C 14,4 C 56 % 1022,0 hPa 0,0 l/m 2 min 0 min 649 W/m 22,5 km/h (4 Bft) 98,31 %
23.05.2023 17:08 18,4 C 21,1 C 14,4 C 56 % 1022,0 hPa 0,0 l/m 2 min 0 min 549 W/m 22,5 km/h (4 Bft) 100,00 %
23.05.2023 17:10 18,4 C 20,6 C 14,4 C 55 % 1022,0 hPa 0,0 l/m 0 min 0 min 290 W/m 25,7 km/h (4 Bft) 100,00 %
23.05.2023 17:12 18,3 C 21,1 C 14,4 C 55 % 1022,0 hPa 0,0 l/m 2 min 0 min 601 W/m 22,5 km/h (4 Bft) 97,83 %
23.05.2023 17:14 18,3 C 21,1 C 14,4 C 54 % 1021,9 hPa 0,0 l/m 2 min 0 min 656 W/m 22,5 km/h (4 Bft) 100,00 %
23.05.2023 17:16 18,4 C 22,8 C 15,0 C 55 % 1022,0 hPa 0,0 l/m 2 min 0 min 646 W/m 19,3 km/h (3 Bft) 100,00 %
23.05.2023 17:18 18,4 C 22,2 C 15,0 C 54 % 1021,9 hPa 0,0 l/m 2 min 0 min 615 W/m 25,7 km/h (4 Bft) 97,87 %
23.05.2023 17:20 18,4 C 22,2 C 15,0 C 55 % 1021,9 hPa 0,0 l/m 2 min 0 min 618 W/m 16,1 km/h (3 Bft) 100,00 %
23.05.2023 17:22 18,4 C 21,1 C 15,0 C 54 % 1022,0 hPa 0,0 l/m 2 min 0 min 504 W/m 29,0 km/h (5 Bft) 100,00 %
23.05.2023 17:24 18,3 C 20,0 C 14,4 C 54 % 1022,0 hPa 0,0 l/m 0 min 0 min 236 W/m 16,1 km/h (3 Bft) 97,87 %
23.05.2023 17:26 18,3 C 21,1 C 14,4 C 55 % 1022,0 hPa 0,0 l/m 2 min 0 min 437 W/m 25,7 km/h (4 Bft) 97,83 %
23.05.2023 17:28 18,3 C 22,2 C 15,0 C 55 % 1022,0 hPa 0,0 l/m 2 min 0 min 626 W/m 19,3 km/h (3 Bft) 100,00 %
23.05.2023 17:30 18,3 C 21,7 C 15,0 C 55 % 1022,0 hPa 0,0 l/m 2 min 0 min 638 W/m 29,0 km/h (5 Bft) 95,74 %
23.05.2023 17:32 18,3 C 20,6 C 14,4 C 54 % 1022,0 hPa 0,0 l/m 2 min 0 min 577 W/m 22,5 km/h (4 Bft) 97,87 %
23.05.2023 17:34 18,2 C 21,1 C 14,4 C 55 % 1022,1 hPa 0,0 l/m 2 min 0 min 379 W/m 25,7 km/h (4 Bft) 100,00 %
23.05.2023 17:36 18,1 C 21,7 C 15,0 C 55 % 1022,1 hPa 0,0 l/m 2 min 0 min 601 W/m 16,1 km/h (3 Bft) 95,74 %
23.05.2023 17:38 18,2 C 21,1 C 14,4 C 54 % 1022,0 hPa 0,0 l/m 2 min 0 min 530 W/m 19,3 km/h (3 Bft) 100,00 %
23.05.2023 17:40 18,2 C 21,7 C 15,0 C 54 % 1022,1 hPa 0,0 l/m 2 min 0 min 486 W/m 16,1 km/h (3 Bft) 100,00 %
23.05.2023 17:42 18,2 C 22,8 C 15,0 C 54 % 1022,0 hPa 0,0 l/m 2 min 0 min 569 W/m 12,9 km/h (3 Bft) 96,23 %
23.05.2023 17:44 18,3 C 22,8 C 15,6 C 55 % 1022,0 hPa 0,0 l/m 2 min 0 min 567 W/m 9,7 km/h (2 Bft) 97,87 %
23.05.2023 17:46 18,4 C 22,2 C 15,0 C 55 % 1022,0 hPa 0,0 l/m 2 min 0 min 464 W/m 12,9 km/h (3 Bft) 100,00 %
23.05.2023 17:48 18,4 C 21,1 C 15,0 C 55 % 1022,0 hPa 0,0 l/m 2 min 0 min 311 W/m 12,9 km/h (3 Bft) 97,37 %
23.05.2023 17:50 18,4 C 20,0 C 14,4 C 56 % 1022,0 hPa 0,0 l/m 0 min 0 min 219 W/m 19,3 km/h (3 Bft) 100,00 %
23.05.2023 17:52 18,2 C 18,9 C 14,4 C 57 % 1022,0 hPa 0,0 l/m 0 min 0 min 132 W/m 19,3 km/h (3 Bft) 94,74 %
23.05.2023 17:54 17,9 C 18,3 C 13,9 C 57 % 1022,0 hPa 0,0 l/m 0 min 0 min 140 W/m 25,7 km/h (4 Bft) 92,11 %
23.05.2023 17:56 17,8 C 18,3 C 13,3 C 57 % 1022,0 hPa 0,0 l/m 0 min 0 min 148 W/m 9,7 km/h (2 Bft) 97,87 %
23.05.2023 17:58 17,7 C 17,8 C 13,3 C 58 % 1022,0 hPa 0,0 l/m 0 min 0 min 153 W/m 12,9 km/h (3 Bft) 97,87 %
23.05.2023 18:00 17,5 C 17,2 C 13,3 C 58 % 1022,1 hPa 0,0 l/m 0 min 0 min 169 W/m 16,1 km/h (3 Bft) 95,74 %
23.05.2023 18:02 17,3 C 18,3 C 13,3 C 58 % 1022,0 hPa 0,0 l/m 2 min 0 min 252 W/m 12,9 km/h (3 Bft) 97,87 %
23.05.2023 18:04 17,3 C 19,4 C 13,9 C 58 % 1022,0 hPa 0,0 l/m 2 min 0 min 529 W/m 25,7 km/h (4 Bft) 95,74 %
23.05.2023 18:07 17,3 C 20,6 C 14,4 C 57 % 1022,0 hPa 0,0 l/m 3 min 0 min 418 W/m 19,3 km/h (3 Bft) 95,74 %
23.05.2023 18:08 17,3 C 20,0 C 14,4 C 57 % 1022,1 hPa 0,0 l/m 1 min 0 min 471 W/m 22,5 km/h (4 Bft) 96,88 %
23.05.2023 18:10 17,3 C 20,0 C 14,4 C 56 % 1022,0 hPa 0,0 l/m 2 min 0 min 392 W/m 22,5 km/h (4 Bft) 97,87 %
23.05.2023 18:12 17,4 C 20,6 C 14,4 C 57 % 1022,0 hPa 0,0 l/m 2 min 0 min 487 W/m 16,1 km/h (3 Bft) 95,74 %
23.05.2023 18:14 17,5 C 21,7 C 15,0 C 58 % 1022,1 hPa 0,0 l/m 2 min 0 min 490 W/m 12,9 km/h (3 Bft) 97,87 %
23.05.2023 18:16 17,6 C 22,2 C 15,0 C 58 % 1022,0 hPa 0,0 l/m 2 min 0 min 483 W/m 19,3 km/h (3 Bft) 97,87 %
23.05.2023 18:18 17,7 C 21,7 C 15,0 C 58 % 1022,0 hPa 0,0 l/m 2 min 0 min 378 W/m 16,1 km/h (3 Bft) 95,74 %
23.05.2023 18:20 17,7 C 21,7 C 15,0 C 59 % 1022,0 hPa 0,0 l/m 2 min 0 min 397 W/m 19,3 km/h (3 Bft) 97,87 %
23.05.2023 18:22 17,8 C 21,7 C 15,0 C 59 % 1022,1 hPa 0,0 l/m 2 min 0 min 392 W/m 16,1 km/h (3 Bft) 97,83 %
23.05.2023 18:24 17,8 C 22,2 C 14,4 C 58 % 1022,1 hPa 0,0 l/m 2 min 0 min 359 W/m 12,9 km/h (3 Bft) 95,74 %
23.05.2023 18:26 17,8 C 22,2 C 15,0 C 57 % 1022,1 hPa 0,0 l/m 2 min 0 min 422 W/m 16,1 km/h (3 Bft) 97,87 %
23.05.2023 18:28 17,7 C 21,7 C 14,4 C 57 % 1022,1 hPa 0,0 l/m 2 min 0 min 431 W/m 12,9 km/h (3 Bft) 100,00 %
23.05.2023 18:30 17,7 C 21,7 C 14,4 C 58 % 1022,1 hPa 0,0 l/m 2 min 0 min 435 W/m 22,5 km/h (4 Bft) 97,87 %
23.05.2023 18:32 17,6 C 21,7 C 14,4 C 57 % 1022,1 hPa 0,0 l/m 2 min 0 min 421 W/m 16,1 km/h (3 Bft) 100,00 %
23.05.2023 18:34 17,6 C 21,7 C 14,4 C 58 % 1022,1 hPa 0,0 l/m 2 min 0 min 409 W/m 12,9 km/h (3 Bft) 100,00 %
23.05.2023 18:36 17,6 C 21,1 C 14,4 C 58 % 1022,1 hPa 0,0 l/m 2 min 0 min 394 W/m 19,3 km/h (3 Bft) 95,65 %
23.05.2023 18:38 17,6 C 21,7 C 14,4 C 58 % 1022,1 hPa 0,0 l/m 2 min 0 min 373 W/m 19,3 km/h (3 Bft) 97,87 %
23.05.2023 18:40 17,6 C 21,1 C 14,4 C 57 % 1022,1 hPa 0,0 l/m 2 min 0 min 308 W/m 22,5 km/h (4 Bft) 97,87 %
23.05.2023 18:42 17,6 C 20,6 C 14,4 C 58 % 1022,1 hPa 0,0 l/m 2 min 0 min 237 W/m 19,3 km/h (3 Bft) 93,62 %
23.05.2023 18:44 17,5 C 21,1 C 14,4 C 58 % 1022,1 hPa 0,0 l/m 2 min 0 min 318 W/m 12,9 km/h (3 Bft) 97,87 %
23.05.2023 18:46 17,6 C 21,7 C 14,4 C 58 % 1022,1 hPa 0,0 l/m 2 min 0 min 345 W/m 9,7 km/h (2 Bft) 95,74 %
23.05.2023 18:48 17,5 C 21,1 C 14,4 C 58 % 1022,1 hPa 0,0 l/m 2 min 0 min 338 W/m 12,9 km/h (3 Bft) 93,62 %
23.05.2023 18:50 17,4 C 21,7 C 13,9 C 57 % 1022,1 hPa 0,0 l/m 2 min 0 min 331 W/m 16,1 km/h (3 Bft) 97,83 %
23.05.2023 18:52 17,4 C 21,7 C 13,9 C 58 % 1022,1 hPa 0,0 l/m 2 min 0 min 313 W/m 9,7 km/h (2 Bft) 97,87 %
23.05.2023 18:54 17,4 C 20,6 C 13,9 C 57 % 1022,2 hPa 0,0 l/m 2 min 0 min 319 W/m 19,3 km/h (3 Bft) 95,74 %
23.05.2023 18:56 17,3 C 20,0 C 13,3 C 58 % 1022,2 hPa 0,0 l/m 2 min 0 min 310 W/m 19,3 km/h (3 Bft) 97,87 %
23.05.2023 18:58 17,2 C 18,9 C 13,3 C 58 % 1022,2 hPa 0,0 l/m 0 min 0 min 156 W/m 32,2 km/h (5 Bft) 95,74 %
23.05.2023 19:00 17,0 C 18,3 C 12,8 C 58 % 1022,2 hPa 0,0 l/m 0 min 0 min 163 W/m 32,2 km/h (5 Bft) 95,74 %
23.05.2023 19:02 16,8 C 18,9 C 12,8 C 58 % 1022,2 hPa 0,0 l/m 2 min 0 min 275 W/m 22,5 km/h (4 Bft) 95,74 %
23.05.2023 19:04 16,7 C 18,9 C 12,8 C 58 % 1022,2 hPa 0,0 l/m 2 min 0 min 297 W/m 16,1 km/h (3 Bft) 95,83 %
23.05.2023 19:06 16,7 C 18,9 C 12,8 C 58 % 1022,2 hPa 0,0 l/m 2 min 0 min 268 W/m 19,3 km/h (3 Bft) 97,87 %
23.05.2023 19:08 16,6 C 18,9 C 12,8 C 58 % 1022,2 hPa 0,0 l/m 2 min 0 min 271 W/m 22,5 km/h (4 Bft) 93,62 %
23.05.2023 19:10 16,6 C 18,9 C 12,2 C 59 % 1022,2 hPa 0,0 l/m 2 min 0 min 263 W/m 19,3 km/h (3 Bft) 93,62 %
23.05.2023 19:12 16,6 C 19,4 C 12,2 C 58 % 1022,2 hPa 0,0 l/m 2 min 0 min 247 W/m 19,3 km/h (3 Bft) 95,74 %
23.05.2023 19:14 16,6 C 18,9 C 12,2 C 59 % 1022,3 hPa 0,0 l/m 2 min 0 min 205 W/m 29,0 km/h (5 Bft) 93,62 %
23.05.2023 19:16 16,5 C 17,8 C 12,2 C 59 % 1022,2 hPa 0,0 l/m 0 min 0 min 108 W/m 16,1 km/h (3 Bft) 93,62 %
23.05.2023 19:18 16,4 C 17,2 C 12,2 C 60 % 1022,3 hPa 0,0 l/m 2 min 0 min 171 W/m 19,3 km/h (3 Bft) 95,65 %
23.05.2023 19:20 16,2 C 16,7 C 11,7 C 60 % 1022,3 hPa 0,0 l/m 0 min 0 min 126 W/m 12,9 km/h (3 Bft) 93,62 %
23.05.2023 19:22 16,1 C 16,1 C 11,7 C 60 % 1022,2 hPa 0,0 l/m 2 min 0 min 218 W/m 22,5 km/h (4 Bft) 95,74 %
23.05.2023 19:24 16,0 C 16,1 C 11,7 C 60 % 1022,4 hPa 0,0 l/m 2 min 0 min 222 W/m 22,5 km/h (4 Bft) 97,87 %
23.05.2023 19:26 15,9 C 16,1 C 11,7 C 61 % 1022,3 hPa 0,0 l/m 2 min 0 min 219 W/m 16,1 km/h (3 Bft) 97,87 %
23.05.2023 19:28 15,9 C 16,1 C 11,7 C 61 % 1022,4 hPa 0,0 l/m 2 min 0 min 211 W/m 16,1 km/h (3 Bft) 97,87 %
23.05.2023 19:30 15,9 C 16,1 C 11,7 C 62 % 1022,4 hPa 0,0 l/m 2 min 0 min 196 W/m 16,1 km/h (3 Bft) 97,87 %
23.05.2023 19:32 15,9 C 15,6 C 11,7 C 62 % 1022,4 hPa 0,0 l/m 2 min 0 min 188 W/m 19,3 km/h (3 Bft) 95,65 %
23.05.2023 19:34 15,8 C 15,6 C 11,7 C 60 % 1022,3 hPa 0,0 l/m 2 min 0 min 181 W/m 29,0 km/h (5 Bft) 97,87 %
23.05.2023 19:36 15,8 C 15,6 C 11,7 C 61 % 1022,3 hPa 0,0 l/m 2 min 0 min 173 W/m 9,7 km/h (2 Bft) 97,87 %
23.05.2023 19:38 15,8 C 15,6 C 11,7 C 62 % 1022,2 hPa 0,0 l/m 2 min 0 min 144 W/m 25,7 km/h (4 Bft) 97,87 %
23.05.2023 19:40 15,7 C 15,6 C 11,7 C 61 % 1022,3 hPa 0,0 l/m 0 min 0 min 102 W/m 19,3 km/h (3 Bft) 97,87 %
23.05.2023 19:42 15,7 C 15,6 C 11,7 C 62 % 1022,2 hPa 0,0 l/m 0 min 0 min 83 W/m 19,3 km/h (3 Bft) 97,87 %
23.05.2023 19:44 15,6 C 15,6 C 11,1 C 61 % 1022,2 hPa 0,0 l/m 0 min 0 min 80 W/m 16,1 km/h (3 Bft) 97,87 %
23.05.2023 19:46 15,6 C 15,6 C 11,1 C 61 % 1022,2 hPa 0,0 l/m 0 min 0 min 79 W/m 25,7 km/h (4 Bft) 95,65 %
23.05.2023 19:48 15,5 C 15,0 C 11,1 C 61 % 1022,3 hPa 0,0 l/m 0 min 0 min 77 W/m 25,7 km/h (4 Bft) 97,87 %
23.05.2023 19:50 15,4 C 15,0 C 11,1 C 61 % 1022,3 hPa 0,0 l/m 0 min 0 min 76 W/m 16,1 km/h (3 Bft) 95,74 %
23.05.2023 19:52 15,3 C 15,0 C 11,1 C 61 % 1022,3 hPa 0,0 l/m 0 min 0 min 74 W/m 19,3 km/h (3 Bft) 97,87 %
23.05.2023 19:54 15,3 C 15,0 C 11,1 C 61 % 1022,3 hPa 0,0 l/m 0 min 0 min 73 W/m 22,5 km/h (4 Bft) 97,87 %
23.05.2023 19:56 15,3 C 15,0 C 11,1 C 62 % 1022,4 hPa 0,0 l/m 0 min 0 min 72 W/m 12,9 km/h (3 Bft) 95,74 %
23.05.2023 19:58 15,2 C 15,0 C 11,1 C 62 % 1022,4 hPa 0,0 l/m 0 min 0 min 70 W/m 16,1 km/h (3 Bft) 100,00 %
23.05.2023 20:00 15,2 C 15,0 C 11,1 C 62 % 1022,4 hPa 0,0 l/m 0 min 0 min 68 W/m 16,1 km/h (3 Bft) 97,83 %
23.05.2023 20:02 15,2 C 14,4 C 11,1 C 61 % 1022,3 hPa 0,0 l/m 0 min 0 min 66 W/m 22,5 km/h (4 Bft) 95,74 %
23.05.2023 20:04 15,1 C 14,4 C 11,1 C 62 % 1022,4 hPa 0,0 l/m 0 min 0 min 64 W/m 22,5 km/h (4 Bft) 97,92 %
23.05.2023 20:06 15,1 C 14,4 C 11,1 C 62 % 1022,5 hPa 0,0 l/m 0 min 0 min 63 W/m 19,3 km/h (3 Bft) 93,62 %
23.05.2023 20:08 15,1 C 14,4 C 11,1 C 62 % 1022,5 hPa 0,0 l/m 0 min 0 min 61 W/m 19,3 km/h (3 Bft) 97,87 %
23.05.2023 20:10 15,0 C 14,4 C 11,1 C 62 % 1022,5 hPa 0,0 l/m 0 min 0 min 60 W/m 16,1 km/h (3 Bft) 97,87 %
23.05.2023 20:12 15,0 C 14,4 C 10,6 C 62 % 1022,5 hPa 0,0 l/m 0 min 0 min 57 W/m 16,1 km/h (3 Bft) 97,87 %
23.05.2023 20:14 14,9 C 14,4 C 10,6 C 62 % 1022,6 hPa 0,0 l/m 0 min 0 min 56 W/m 16,1 km/h (3 Bft) 97,83 %
23.05.2023 20:16 14,9 C 14,4 C 10,6 C 63 % 1022,5 hPa 0,0 l/m 0 min 0 min 54 W/m 19,3 km/h (3 Bft) 95,74 %
23.05.2023 20:18 14,8 C 14,4 C 10,6 C 63 % 1022,5 hPa 0,0 l/m 0 min 0 min 53 W/m 22,5 km/h (4 Bft) 97,87 %
23.05.2023 20:20 14,8 C 14,4 C 10,6 C 63 % 1022,5 hPa 0,0 l/m 0 min 0 min 51 W/m 22,5 km/h (4 Bft) 97,87 %
23.05.2023 20:22 14,8 C 14,4 C 10,6 C 63 % 1022,5 hPa 0,0 l/m 0 min 0 min 49 W/m 12,9 km/h (3 Bft) 97,87 %
23.05.2023 20:24 14,7 C 13,9 C 10,6 C 63 % 1022,6 hPa 0,0 l/m 0 min 0 min 47 W/m 12,9 km/h (3 Bft) 97,87 %
23.05.2023 20:26 14,7 C 13,9 C 10,6 C 63 % 1022,6 hPa 0,0 l/m 0 min 0 min 46 W/m 12,9 km/h (3 Bft) 95,74 %
23.05.2023 20:28 14,7 C 13,9 C 10,6 C 63 % 1022,6 hPa 0,0 l/m 0 min 0 min 44 W/m 12,9 km/h (3 Bft) 97,83 %
23.05.2023 20:30 14,6 C 13,9 C 10,6 C 63 % 1022,6 hPa 0,0 l/m 0 min 0 min 42 W/m 16,1 km/h (3 Bft) 100,00 %
23.05.2023 20:32 14,6 C 13,9 C 10,6 C 64 % 1022,6 hPa 0,0 l/m 0 min 0 min 40 W/m 12,9 km/h (3 Bft) 97,87 %
23.05.2023 20:34 14,6 C 13,9 C 10,6 C 64 % 1022,5 hPa 0,0 l/m 0 min 0 min 39 W/m 12,9 km/h (3 Bft) 97,87 %
23.05.2023 20:36 14,5 C 13,9 C 10,0 C 64 % 1022,6 hPa 0,0 l/m 0 min 0 min 37 W/m 16,1 km/h (3 Bft) 100,00 %
23.05.2023 20:38 14,4 C 13,9 C 10,6 C 63 % 1022,6 hPa 0,0 l/m 0 min 0 min 36 W/m 16,1 km/h (3 Bft) 100,00 %
23.05.2023 20:40 14,3 C 13,9 C 10,0 C 63 % 1022,5 hPa 0,0 l/m 0 min 0 min 34 W/m 16,1 km/h (3 Bft) 100,00 %
23.05.2023 20:42 14,3 C 13,9 C 10,0 C 64 % 1022,6 hPa 0,0 l/m 0 min 0 min 33 W/m 9,7 km/h (2 Bft) 97,83 %
23.05.2023 20:44 14,3 C 13,9 C 10,0 C 64 % 1022,6 hPa 0,0 l/m 0 min 0 min 32 W/m 16,1 km/h (3 Bft) 100,00 %
23.05.2023 20:46 14,3 C 13,3 C 10,0 C 64 % 1022,7 hPa 0,0 l/m 0 min 0 min 31 W/m 12,9 km/h (3 Bft) 100,00 %
23.05.2023 20:48 14,3 C 13,9 C 10,0 C 65 % 1022,6 hPa 0,0 l/m 0 min 0 min 29 W/m 16,1 km/h (3 Bft) 100,00 %
23.05.2023 20:50 14,3 C 13,3 C 10,0 C 65 % 1022,6 hPa 0,0 l/m 0 min 0 min 28 W/m 16,1 km/h (3 Bft) 100,00 %
23.05.2023 20:52 14,3 C 13,3 C 10,0 C 65 % 1022,7 hPa 0,0 l/m 0 min 0 min 26 W/m 9,7 km/h (2 Bft) 97,87 %
23.05.2023 20:54 14,2 C 13,3 C 10,0 C 66 % 1022,7 hPa 0,0 l/m 0 min 0 min 26 W/m 12,9 km/h (3 Bft) 100,00 %
23.05.2023 20:56 14,2 C 13,3 C 10,0 C 66 % 1022,7 hPa 0,0 l/m 0 min 0 min 25 W/m 9,7 km/h (2 Bft) 95,65 %
23.05.2023 20:58 14,2 C 13,3 C 10,0 C 66 % 1022,8 hPa 0,0 l/m 0 min 0 min 23 W/m 12,9 km/h (3 Bft) 100,00 %
23.05.2023 21:00 14,1 C 13,3 C 10,0 C 66 % 1022,8 hPa 0,0 l/m 0 min 0 min 21 W/m 12,9 km/h (3 Bft) 100,00 %
23.05.2023 21:02 14,0 C 13,3 C 9,4 C 66 % 1022,8 hPa 0,0 l/m 0 min 0 min 20 W/m 9,7 km/h (2 Bft) 93,62 %
23.05.2023 21:04 13,9 C 13,3 C 9,4 C 65 % 1022,8 hPa 0,0 l/m 0 min 0 min 19 W/m 16,1 km/h (3 Bft) 100,00 %
23.05.2023 21:06 13,9 C 12,8 C 9,4 C 65 % 1022,9 hPa 0,0 l/m 0 min 0 min 17 W/m 12,9 km/h (3 Bft) 95,74 %
23.05.2023 21:08 13,8 C 12,8 C 9,4 C 66 % 1022,9 hPa 0,0 l/m 0 min 0 min 16 W/m 6,4 km/h (2 Bft) 100,00 %
23.05.2023 21:10 13,8 C 12,8 C 9,4 C 66 % 1022,9 hPa 0,0 l/m 0 min 0 min 14 W/m 12,9 km/h (3 Bft) 100,00 %
23.05.2023 21:12 13,8 C 12,8 C 9,4 C 65 % 1023,0 hPa 0,0 l/m 0 min 0 min 12 W/m 16,1 km/h (3 Bft) 100,00 %
23.05.2023 21:14 13,7 C 12,8 C 9,4 C 65 % 1023,0 hPa 0,0 l/m 0 min 0 min 12 W/m 6,4 km/h (2 Bft) 100,00 %
23.05.2023 21:16 13,7 C 12,8 C 9,4 C 65 % 1023,0 hPa 0,0 l/m 0 min 0 min 11 W/m 12,9 km/h (3 Bft) 100,00 %
23.05.2023 21:18 13,6 C 12,8 C 9,4 C 65 % 1023,1 hPa 0,0 l/m 0 min 0 min 9 W/m 12,9 km/h (3 Bft) 100,00 %
23.05.2023 21:20 13,6 C 12,8 C 9,4 C 66 % 1023,1 hPa 0,0 l/m 0 min 0 min 9 W/m 9,7 km/h (2 Bft) 100,00 %
23.05.2023 21:22 13,6 C 12,8 C 9,4 C 66 % 1023,2 hPa 0,0 l/m 0 min 0 min 7 W/m 16,1 km/h (3 Bft) 97,87 %
23.05.2023 21:24 13,6 C 12,8 C 9,4 C 66 % 1023,1 hPa 0,0 l/m 0 min 0 min 7 W/m 6,4 km/h (2 Bft) 100,00 %
23.05.2023 21:26 13,5 C 12,8 C 9,4 C 66 % 1023,2 hPa 0,0 l/m 0 min 0 min 5 W/m 6,4 km/h (2 Bft) 97,87 %
23.05.2023 21:28 13,4 C 12,8 C 9,4 C 66 % 1023,2 hPa 0,0 l/m 0 min 0 min 5 W/m 16,1 km/h (3 Bft) 100,00 %
23.05.2023 21:30 13,4 C 12,2 C 8,9 C 66 % 1023,2 hPa 0,0 l/m 0 min 0 min 3 W/m 9,7 km/h (2 Bft) 97,87 %
23.05.2023 21:32 13,4 C 12,2 C 8,9 C 66 % 1023,1 hPa 0,0 l/m 0 min 0 min 0 W/m 6,4 km/h (2 Bft) 95,74 %
23.05.2023 21:34 13,3 C 12,2 C 8,9 C 67 % 1023,2 hPa 0,0 l/m 0 min 0 min 0 W/m 6,4 km/h (2 Bft) 97,87 %
23.05.2023 21:36 13,3 C 12,2 C 8,9 C 67 % 1023,2 hPa 0,0 l/m 0 min 0 min 0 W/m 6,4 km/h (2 Bft) 95,74 %
23.05.2023 21:38 13,3 C 12,2 C 8,9 C 67 % 1023,2 hPa 0,0 l/m 0 min 0 min 0 W/m 9,7 km/h (2 Bft) 93,62 %
23.05.2023 21:40 13,2 C 12,2 C 8,9 C 67 % 1023,2 hPa 0,0 l/m 0 min 0 min 0 W/m 9,7 km/h (2 Bft) 95,74 %
23.05.2023 21:42 13,2 C 12,2 C 8,9 C 67 % 1023,3 hPa 0,0 l/m 0 min 0 min 0 W/m 6,4 km/h (2 Bft) 95,65 %
23.05.2023 21:44 13,1 C 12,2 C 8,9 C 67 % 1023,3 hPa 0,0 l/m 0 min 0 min 0 W/m 9,7 km/h (2 Bft) 95,74 %
23.05.2023 21:46 13,1 C 12,2 C 8,9 C 68 % 1023,3 hPa 0,0 l/m 0 min 0 min 0 W/m 6,4 km/h (2 Bft) 93,62 %
23.05.2023 21:48 13,0 C 12,2 C 8,9 C 67 % 1023,3 hPa 0,0 l/m 0 min 0 min 0 W/m 9,7 km/h (2 Bft) 93,62 %
23.05.2023 21:50 12,9 C 12,2 C 8,9 C 68 % 1023,3 hPa 0,0 l/m 0 min 0 min 0 W/m 12,9 km/h (3 Bft) 93,62 %
23.05.2023 21:52 12,9 C 12,2 C 8,9 C 68 % 1023,3 hPa 0,0 l/m 0 min 0 min 0 W/m 16,1 km/h (3 Bft) 91,49 %
23.05.2023 21:54 12,8 C 12,2 C 8,9 C 68 % 1023,3 hPa 0,0 l/m 0 min 0 min 0 W/m 12,9 km/h (3 Bft) 91,30 %
23.05.2023 21:56 12,8 C 12,2 C 8,9 C 68 % 1023,3 hPa 0,0 l/m 0 min 0 min 0 W/m 6,4 km/h (2 Bft) 95,74 %
23.05.2023 21:58 12,8 C 11,7 C 8,3 C 68 % 1023,4 hPa 0,0 l/m 0 min 0 min 0 W/m 9,7 km/h (2 Bft) 93,62 %
23.05.2023 22:00 12,8 C 11,7 C 8,3 C 68 % 1023,5 hPa 0,0 l/m 0 min 0 min 0 W/m 12,9 km/h (3 Bft) 93,62 %
23.05.2023 22:02 12,8 C 12,2 C 8,9 C 68 % 1023,5 hPa 0,0 l/m 0 min 0 min 0 W/m 6,4 km/h (2 Bft) 91,49 %
23.05.2023 22:04 12,7 C 11,7 C 8,3 C 68 % 1023,5 hPa 0,0 l/m 0 min 0 min 0 W/m 9,7 km/h (2 Bft) 93,75 %
23.05.2023 22:06 12,7 C 11,7 C 8,3 C 68 % 1023,6 hPa 0,0 l/m 0 min 0 min 0 W/m 6,4 km/h (2 Bft) 89,66 %
23.05.2023 22:08 12,7 C 11,7 C 8,3 C 68 % 1023,6 hPa 0,0 l/m 0 min 0 min 0 W/m 9,7 km/h (2 Bft) 94,29 %
23.05.2023 22:10 12,6 C 11,7 C 8,3 C 69 % 1023,7 hPa 0,0 l/m 0 min 0 min 0 W/m 9,7 km/h (2 Bft) 93,62 %
23.05.2023 22:12 12,6 C 11,7 C 8,3 C 69 % 1023,7 hPa 0,0 l/m 0 min 0 min 0 W/m 6,4 km/h (2 Bft) 91,49 %
23.05.2023 22:14 12,5 C 11,7 C 8,3 C 69 % 1023,7 hPa 0,0 l/m 0 min 0 min 0 W/m 22,5 km/h (4 Bft) 93,62 %
23.05.2023 22:16 12,4 C 11,7 C 8,3 C 69 % 1023,7 hPa 0,0 l/m 0 min 0 min 0 W/m 9,7 km/h (2 Bft) 93,62 %
23.05.2023 22:18 12,4 C 11,7 C 7,8 C 69 % 1023,7 hPa 0,0 l/m 0 min 0 min 0 W/m 9,7 km/h (2 Bft) 95,74 %
23.05.2023 22:20 12,3 C 11,7 C 7,8 C 69 % 1023,8 hPa 0,0 l/m 0 min 0 min 0 W/m 9,7 km/h (2 Bft) 95,74 %
23.05.2023 22:22 12,3 C 11,7 C 8,3 C 70 % 1023,8 hPa 0,0 l/m 0 min 0 min 0 W/m 3,2 km/h (1 Bft) 97,83 %
23.05.2023 22:24 12,3 C 11,7 C 7,8 C 70 % 1023,8 hPa 0,0 l/m 0 min 0 min 0 W/m 9,7 km/h (2 Bft) 95,74 %
23.05.2023 22:26 12,3 C 11,1 C 7,8 C 70 % 1023,9 hPa 0,0 l/m 0 min 0 min 0 W/m 9,7 km/h (2 Bft) 97,87 %
23.05.2023 22:28 12,2 C 11,1 C 7,8 C 70 % 1023,9 hPa 0,0 l/m 0 min 0 min 0 W/m 6,4 km/h (2 Bft) 100,00 %
23.05.2023 22:30 12,2 C 11,1 C 7,8 C 70 % 1024,0 hPa 0,0 l/m 0 min 0 min 0 W/m 16,1 km/h (3 Bft) 97,87 %
23.05.2023 22:32 12,1 C 11,1 C 7,8 C 71 % 1024,1 hPa 0,0 l/m 0 min 0 min 0 W/m 22,5 km/h (4 Bft) 97,87 %
23.05.2023 22:34 12,1 C 11,1 C 7,8 C 71 % 1024,0 hPa 0,0 l/m 0 min 0 min 0 W/m 12,9 km/h (3 Bft) 100,00 %
23.05.2023 22:36 12,1 C 11,1 C 7,8 C 70 % 1024,0 hPa 0,0 l/m 0 min 0 min 0 W/m 22,5 km/h (4 Bft) 100,00 %
23.05.2023 22:38 12,1 C 11,1 C 7,8 C 71 % 1024,0 hPa 0,0 l/m 0 min 0 min 0 W/m 12,9 km/h (3 Bft) 97,87 %
23.05.2023 22:40 12,0 C 11,1 C 7,8 C 71 % 1024,0 hPa 0,0 l/m 0 min 0 min 0 W/m 9,7 km/h (2 Bft) 100,00 %
23.05.2023 22:42 11,9 C 11,1 C 7,8 C 71 % 1024,0 hPa 0,0 l/m 0 min 0 min 0 W/m 9,7 km/h (2 Bft) 95,74 %
23.05.2023 22:44 11,9 C 11,1 C 7,8 C 71 % 1024,0 hPa 0,0 l/m 0 min 0 min 0 W/m 12,9 km/h (3 Bft) 100,00 %
23.05.2023 22:46 11,9 C 11,1 C 7,8 C 71 % 1024,0 hPa 0,0 l/m 0 min 0 min 0 W/m 9,7 km/h (2 Bft) 100,00 %
23.05.2023 22:48 11,8 C 11,1 C 7,8 C 72 % 1024,1 hPa 0,0 l/m 0 min 0 min 0 W/m 12,9 km/h (3 Bft) 100,00 %
23.05.2023 22:50 11,8 C 11,1 C 7,8 C 72 % 1024,0 hPa 0,0 l/m 0 min 0 min 0 W/m 12,9 km/h (3 Bft) 100,00 %
23.05.2023 22:52 11,8 C 11,1 C 7,8 C 72 % 1024,0 hPa 0,0 l/m 0 min 0 min 0 W/m 9,7 km/h (2 Bft) 100,00 %
23.05.2023 22:54 11,8 C 11,1 C 7,8 C 72 % 1024,0 hPa 0,0 l/m 0 min 0 min 0 W/m 9,7 km/h (2 Bft) 97,92 %
23.05.2023 22:56 11,7 C 10,6 C 7,2 C 72 % 1024,1 hPa 0,0 l/m 0 min 0 min 0 W/m 3,2 km/h (1 Bft) 100,00 %
23.05.2023 22:58 11,7 C 10,6 C 7,2 C 72 % 1024,1 hPa 0,0 l/m 0 min 0 min 0 W/m 12,9 km/h (3 Bft) 100,00 %
23.05.2023 23:00 11,7 C 10,6 C 7,2 C 72 % 1024,1 hPa 0,0 l/m 0 min 0 min 0 W/m 6,4 km/h (2 Bft) 100,00 %
23.05.2023 23:02 11,6 C 10,6 C 7,2 C 72 % 1024,1 hPa 0,0 l/m 0 min 0 min 0 W/m 19,3 km/h (3 Bft) 100,00 %
23.05.2023 23:04 11,6 C 10,6 C 7,2 C 72 % 1024,1 hPa 0,0 l/m 0 min 0 min 0 W/m 6,4 km/h (2 Bft) 100,00 %
23.05.2023 23:06 11,6 C 10,6 C 7,2 C 72 % 1024,1 hPa 0,0 l/m 0 min 0 min 0 W/m 16,1 km/h (3 Bft) 100,00 %
23.05.2023 23:08 11,5 C 10,6 C 7,2 C 72 % 1024,2 hPa 0,0 l/m 0 min 0 min 0 W/m 19,3 km/h (3 Bft) 100,00 %
23.05.2023 23:10 11,4 C 10,6 C 7,2 C 72 % 1024,1 hPa 0,0 l/m 0 min 0 min 0 W/m 12,9 km/h (3 Bft) 100,00 %
23.05.2023 23:12 11,4 C 10,6 C 7,2 C 73 % 1024,2 hPa 0,0 l/m 0 min 0 min 0 W/m 9,7 km/h (2 Bft) 100,00 %
23.05.2023 23:14 11,4 C 10,6 C 7,2 C 72 % 1024,2 hPa 0,0 l/m 0 min 0 min 0 W/m 3,2 km/h (1 Bft) 100,00 %
23.05.2023 23:16 11,4 C 10,6 C 7,2 C 73 % 1024,2 hPa 0,0 l/m 0 min 0 min 0 W/m 9,7 km/h (2 Bft) 97,96 %
23.05.2023 23:18 11,3 C 10,6 C 7,2 C 73 % 1024,2 hPa 0,0 l/m 0 min 0 min 0 W/m 16,1 km/h (3 Bft) 100,00 %
23.05.2023 23:20 11,3 C 10,6 C 7,2 C 73 % 1024,3 hPa 0,0 l/m 0 min 0 min 0 W/m 12,9 km/h (3 Bft) 100,00 %
23.05.2023 23:22 11,3 C 10,6 C 7,2 C 73 % 1024,3 hPa 0,0 l/m 0 min 0 min 0 W/m 16,1 km/h (3 Bft) 95,74 %
23.05.2023 23:24 11,2 C 10,6 C 7,2 C 73 % 1024,3 hPa 0,0 l/m 0 min 0 min 0 W/m 12,9 km/h (3 Bft) 97,87 %
23.05.2023 23:26 11,2 C 10,6 C 7,2 C 73 % 1024,3 hPa 0,0 l/m 0 min 0 min 0 W/m 12,9 km/h (3 Bft) 100,00 %
23.05.2023 23:28 11,2 C 10,6 C 7,2 C 73 % 1024,3 hPa 0,0 l/m 0 min 0 min 0 W/m 19,3 km/h (3 Bft) 97,87 %
23.05.2023 23:30 11,1 C 10,0 C 7,2 C 73 % 1024,3 hPa 0,0 l/m 0 min 0 min 0 W/m 16,1 km/h (3 Bft) 97,83 %
23.05.2023 23:32 11,1 C 10,0 C 7,2 C 73 % 1024,3 hPa 0,0 l/m 0 min 0 min 0 W/m 16,1 km/h (3 Bft) 97,87 %
23.05.2023 23:34 11,1 C 10,0 C 7,2 C 73 % 1024,3 hPa 0,0 l/m 0 min 0 min 0 W/m 9,7 km/h (2 Bft) 97,87 %
23.05.2023 23:36 11,1 C 10,0 C 7,2 C 73 % 1024,3 hPa 0,0 l/m 0 min 0 min 0 W/m 9,7 km/h (2 Bft) 97,87 %
23.05.2023 23:38 11,0 C 10,0 C 6,7 C 73 % 1024,3 hPa 0,0 l/m 0 min 0 min 0 W/m 12,9 km/h (3 Bft) 97,87 %
23.05.2023 23:40 10,9 C 10,0 C 6,7 C 73 % 1024,3 hPa 0,0 l/m 0 min 0 min 0 W/m 9,7 km/h (2 Bft) 97,87 %
23.05.2023 23:42 10,9 C 10,0 C 6,7 C 73 % 1024,3 hPa 0,0 l/m 0 min 0 min 0 W/m 16,1 km/h (3 Bft) 97,14 %
23.05.2023 23:44 10,9 C 10,0 C 6,7 C 73 % 1024,3 hPa 0,0 l/m 0 min 0 min 0 W/m 12,9 km/h (3 Bft) 98,11 %
23.05.2023 23:46 10,8 C 10,0 C 6,7 C 73 % 1024,3 hPa 0,0 l/m 0 min 0 min 0 W/m 12,9 km/h (3 Bft) 96,55 %
23.05.2023 23:48 10,8 C 10,0 C 6,7 C 73 % 1024,2 hPa 0,0 l/m 0 min 0 min 0 W/m 12,9 km/h (3 Bft) 96,67 %
23.05.2023 23:50 10,8 C 10,0 C 6,7 C 73 % 1024,3 hPa 0,0 l/m 0 min 0 min 0 W/m 12,9 km/h (3 Bft) 95,65 %
23.05.2023 23:52 10,8 C 10,0 C 6,7 C 74 % 1024,2 hPa 0,0 l/m 0 min 0 min 0 W/m 9,7 km/h (2 Bft) 94,34 %
23.05.2023 23:54 10,7 C 10,0 C 6,7 C 74 % 1024,2 hPa 0,0 l/m 0 min 0 min 0 W/m 9,7 km/h (2 Bft) 97,87 %
23.05.2023 23:56 10,7 C 10,0 C 6,7 C 74 % 1024,2 hPa 0,0 l/m 0 min 0 min 0 W/m 9,7 km/h (2 Bft) 100,00 %
23.05.2023 23:58 10,7 C 10,0 C 6,7 C 74 % 1024,2 hPa 0,0 l/m 0 min 0 min 0 W/m 6,4 km/h (2 Bft) 95,74 %
_ Min-Zeit 23:54 23:30 23:38 17:14 00:00 - - - - 01:36 12:08
Minimum _ 10,7 C 10,0 C 6,7 C 54 % 1017,1 hPa - - - - 3,2 km/h (1 Bft) 86,96 %
_ Max-Zeit 16:58 14:46 12:24 06:52 23:20 00:00 18:07 00:00 13:16 05:08 00:00
Maximum _ 18,4 C 24,4 C 15,6 C 91 % 1024,3 hPa 0,0 l/m 3 min 0 min 1049 W/m 45,1 km/h
N-NW (6 Bft)
100,00 %
Durchschnitt _ 15,2 C 15,5 C 11,3 C 77 % 1020,8 hPa #0,0 l/m #4:40 h #0 min. 247 W/m 16,8 km/h (3 Bft) 97,32 %
© 2023 W. Hausmann